Time,TemperatureF,DewpointF,PressureIn,WindDirection,WindDirectionDegrees,WindSpeedMPH,WindSpeedGustMPH,Humidity,HourlyPrecipIn,Conditions,Clouds,dailyrainin,SoftwareType,DateUTC
2013-05-21 00:01:00,56.7,48.1,30.07,North,353,0.0,0.0,73,0.00,,---,0.00,VWS V14.00,2013-05-21 04:01:00,
2013-05-21 00:06:00,56.7,48.5,30.07,North,353,0.0,0.0,74,0.00,,---,0.00,VWS V14.00,2013-05-21 04:06:00,
2013-05-21 00:11:00,56.7,48.5,30.07,North,353,0.0,0.0,74,0.00,,---,0.00,VWS V14.00,2013-05-21 04:11:00,
2013-05-21 00:16:00,56.7,48.8,30.07,North,353,0.0,0.0,75,0.00,,---,0.00,VWS V14.00,2013-05-21 04:16:00,
2013-05-21 00:21:00,56.8,49.4,30.07,North,353,0.0,0.0,76,0.00,,---,0.00,VWS V14.00,2013-05-21 04:21:00,
2013-05-21 00:26:00,56.8,49.4,30.07,North,353,0.0,0.0,76,0.00,,---,0.00,VWS V14.00,2013-05-21 04:26:00,
2013-05-21 00:31:00,56.8,49.7,30.07,North,353,0.0,0.0,77,0.00,,---,0.00,VWS V14.00,2013-05-21 04:31:00,
2013-05-21 00:36:00,57.0,49.9,30.07,North,353,0.0,0.0,77,0.00,,---,0.00,VWS V14.00,2013-05-21 04:36:00,
2013-05-21 00:37:00,57.2,50.1,30.07,North,353,0.0,0.0,77,0.00,,---,0.00,VWS V14.00,2013-05-21 04:37:00,
2013-05-21 00:42:00,57.2,50.4,30.07,North,353,0.0,0.0,78,0.00,,---,0.00,VWS V14.00,2013-05-21 04:42:00,
2013-05-21 00:47:00,57.4,50.6,30.07,North,353,0.0,0.0,78,0.00,,---,0.00,VWS V14.00,2013-05-21 04:47:00,
2013-05-21 00:52:00,57.6,51.1,30.07,North,353,0.0,0.0,79,0.00,,---,0.00,VWS V14.00,2013-05-21 04:52:00,
2013-05-21 00:57:00,57.6,51.5,30.07,ENE,78,0.0,0.0,80,0.00,,---,0.00,VWS V14.00,2013-05-21 04:57:00,
2013-05-21 00:58:00,57.6,51.5,30.07,ENE,78,0.0,0.0,80,0.00,,---,0.00,VWS V14.00,2013-05-21 04:58:00,
2013-05-21 01:02:00,57.6,51.5,30.07,ENE,78,0.0,0.0,80,0.00,,---,0.00,VWS V14.00,2013-05-21 05:02:00,
2013-05-21 01:03:00,57.6,51.5,30.07,ENE,78,0.0,0.0,80,0.00,,---,0.00,VWS V14.00,2013-05-21 05:03:00,
2013-05-21 01:07:00,57.6,51.8,30.07,ESE,111,4.0,4.0,81,0.00,,---,0.00,VWS V14.00,2013-05-21 05:07:00,
2013-05-21 01:08:00,57.6,51.8,30.07,ESE,112,4.7,4.7,81,0.00,,---,0.00,VWS V14.00,2013-05-21 05:08:00,
2013-05-21 01:09:00,57.6,51.8,30.07,ESE,112,4.0,4.7,81,0.00,,---,0.00,VWS V14.00,2013-05-21 05:09:00,
2013-05-21 01:13:00,57.6,51.8,30.07,ESE,112,0.0,0.0,81,0.00,,---,0.00,VWS V14.00,2013-05-21 05:13:00,
2013-05-21 01:14:00,57.6,51.8,30.07,ESE,112,0.0,0.0,81,0.00,,---,0.00,VWS V14.00,2013-05-21 05:14:00,
2013-05-21 01:18:00,57.6,51.8,30.07,ESE,112,3.4,3.4,81,0.00,,---,0.00,VWS V14.00,2013-05-21 05:18:00,
2013-05-21 01:19:00,57.6,51.8,30.07,ESE,112,0.0,3.4,81,0.00,,---,0.00,VWS V14.00,2013-05-21 05:19:00,
2013-05-21 01:23:00,57.4,51.6,30.07,ESE,107,0.0,0.0,81,0.00,,---,0.00,VWS V14.00,2013-05-21 05:23:00,
2013-05-21 01:24:00,57.4,51.6,30.07,ESE,107,0.0,4.0,81,0.00,,---,0.00,VWS V14.00,2013-05-21 05:24:00,
2013-05-21 01:28:00,57.2,51.4,30.07,ESE,107,0.0,0.0,81,0.00,,---,0.00,VWS V14.00,2013-05-21 05:28:00,
2013-05-21 01:29:00,57.2,51.4,30.07,ESE,107,0.0,0.0,81,0.00,,---,0.00,VWS V14.00,2013-05-21 05:29:00,
2013-05-21 01:33:00,57.0,51.6,30.07,ESE,107,4.0,4.7,82,0.00,,---,0.00,VWS V14.00,2013-05-21 05:33:00,
2013-05-21 01:34:00,57.0,51.6,30.07,ESE,107,3.4,4.7,82,0.00,,---,0.00,VWS V14.00,2013-05-21 05:34:00,
2013-05-21 01:38:00,56.8,51.4,30.07,SE,136,0.0,0.0,82,0.00,,---,0.00,VWS V14.00,2013-05-21 05:38:00,
2013-05-21 01:39:00,56.8,51.4,30.07,SE,136,0.0,0.0,82,0.00,,---,0.00,VWS V14.00,2013-05-21 05:39:00,
2013-05-21 01:40:00,56.8,51.4,30.07,East,99,4.7,4.7,82,0.00,,---,0.00,VWS V14.00,2013-05-21 05:40:00,
2013-05-21 01:44:00,56.7,51.2,30.07,East,93,4.0,4.7,82,0.00,,---,0.00,VWS V14.00,2013-05-21 05:44:00,
2013-05-21 01:45:00,56.5,51.1,30.07,East,98,3.4,3.4,82,0.00,,---,0.00,VWS V14.00,2013-05-21 05:45:00,
2013-05-21 01:49:00,56.5,51.1,30.07,SE,124,4.0,5.4,82,0.00,,---,0.00,VWS V14.00,2013-05-21 05:49:00,
2013-05-21 01:50:00,56.3,50.9,30.07,East,82,5.4,5.4,82,0.00,,---,0.00,VWS V14.00,2013-05-21 05:50:00,
2013-05-21 01:54:00,56.3,50.9,30.07,ESE,110,6.0,6.0,82,0.00,,---,0.00,VWS V14.00,2013-05-21 05:54:00,
2013-05-21 01:55:00,56.3,50.9,30.07,East,92,4.7,5.4,82,0.00,,---,0.00,VWS V14.00,2013-05-21 05:55:00,
2013-05-21 01:59:00,56.3,51.2,30.07,ESE,105,4.0,6.0,83,0.00,,---,0.00,VWS V14.00,2013-05-21 05:59:00,
2013-05-21 02:00:00,56.1,51.0,30.07,East,91,5.4,6.0,83,0.00,,---,0.00,VWS V14.00,2013-05-21 06:00:00,
2013-05-21 02:01:00,56.1,51.0,30.07,East,100,4.7,5.4,83,0.00,,---,0.00,VWS V14.00,2013-05-21 06:01:00,
2013-05-21 02:04:00,56.1,51.0,30.07,SE,129,3.4,4.7,83,0.00,,---,0.00,VWS V14.00,2013-05-21 06:04:00,
2013-05-21 02:05:00,56.1,51.0,30.07,East,85,6.0,6.0,83,0.00,,---,0.00,VWS V14.00,2013-05-21 06:05:00,
2013-05-21 02:06:00,55.9,50.9,30.07,SSE,153,4.0,5.4,83,0.00,,---,0.00,VWS V14.00,2013-05-21 06:06:00,
2013-05-21 02:09:00,55.9,51.2,30.07,ENE,66,3.4,3.4,84,0.00,,---,0.00,VWS V14.00,2013-05-21 06:09:00,
2013-05-21 02:10:00,55.9,51.2,30.07,East,100,4.7,4.7,84,0.00,,---,0.00,VWS V14.00,2013-05-21 06:10:00,
2013-05-21 02:11:00,55.9,51.2,30.07,ENE,74,4.7,4.7,84,0.00,,---,0.00,VWS V14.00,2013-05-21 06:11:00,
2013-05-21 02:14:00,55.8,51.0,30.07,SE,130,3.4,3.4,84,0.00,,---,0.00,VWS V14.00,2013-05-21 06:14:00,
2013-05-21 02:15:00,55.8,51.0,30.07,SE,130,0.0,0.0,84,0.00,,---,0.00,VWS V14.00,2013-05-21 06:15:00,
2013-05-21 02:17:00,55.8,51.0,30.07,SE,130,0.0,0.0,84,0.00,,---,0.00,VWS V14.00,2013-05-21 06:17:00,
2013-05-21 02:19:00,55.6,50.8,30.07,SE,130,0.0,0.0,84,0.00,,---,0.00,VWS V14.00,2013-05-21 06:19:00,
2013-05-21 02:20:00,55.6,50.8,30.07,SE,130,0.0,0.0,84,0.00,,---,0.00,VWS V14.00,2013-05-21 06:20:00,
2013-05-21 02:22:00,55.4,50.7,30.07,SE,130,0.0,0.0,84,0.00,,---,0.00,VWS V14.00,2013-05-21 06:22:00,
2013-05-21 02:24:00,55.4,50.7,30.07,SE,130,0.0,0.0,84,0.00,,---,0.00,VWS V14.00,2013-05-21 06:24:00,
2013-05-21 02:25:00,55.4,50.7,30.07,SE,130,0.0,0.0,84,0.00,,---,0.00,VWS V14.00,2013-05-21 06:25:00,
2013-05-21 02:26:00,55.4,50.7,30.07,SE,130,0.0,0.0,84,0.00,,---,0.00,VWS V14.00,2013-05-21 06:26:00,
2013-05-21 02:27:00,55.2,50.5,30.07,SE,131,0.0,0.0,84,0.00,,---,0.00,VWS V14.00,2013-05-21 06:27:00,
2013-05-21 02:29:00,55.2,50.5,30.07,SE,130,0.0,0.0,84,0.00,,---,0.00,VWS V14.00,2013-05-21 06:29:00,
2013-05-21 02:30:00,55.2,50.5,30.07,SE,130,0.0,0.0,84,0.00,,---,0.00,VWS V14.00,2013-05-21 06:30:00,
2013-05-21 02:31:00,55.2,50.5,30.07,SE,130,0.0,0.0,84,0.00,,---,0.00,VWS V14.00,2013-05-21 06:31:00,
2013-05-21 02:32:00,55.0,50.3,30.07,SE,130,0.0,0.0,84,0.00,,---,0.00,VWS V14.00,2013-05-21 06:32:00,
2013-05-21 02:35:00,55.2,50.5,30.07,SE,130,0.0,3.4,84,0.00,,---,0.00,VWS V14.00,2013-05-21 06:35:00,
2013-05-21 02:36:00,55.0,50.3,30.07,SE,130,0.0,3.4,84,0.00,,---,0.00,VWS V14.00,2013-05-21 06:36:00,
2013-05-21 02:37:00,55.0,50.3,30.04,SE,130,0.0,0.0,84,0.00,,---,0.00,VWS V14.00,2013-05-21 06:37:00,
2013-05-21 02:40:00,55.0,50.6,30.04,SE,130,0.0,0.0,85,0.00,,---,0.00,VWS V14.00,2013-05-21 06:40:00,
2013-05-21 02:41:00,55.0,50.6,30.04,SE,130,0.0,0.0,85,0.00,,---,0.00,VWS V14.00,2013-05-21 06:41:00,
2013-05-21 02:42:00,55.0,50.6,30.04,SE,130,0.0,0.0,85,0.00,,---,0.00,VWS V14.00,2013-05-21 06:42:00,
2013-05-21 02:45:00,55.0,50.6,30.04,SE,130,0.0,0.0,85,0.00,,---,0.00,VWS V14.00,2013-05-21 06:45:00,
2013-05-21 02:46:00,55.0,50.6,30.04,SE,130,3.4,3.4,85,0.00,,---,0.00,VWS V14.00,2013-05-21 06:46:00,
2013-05-21 02:47:00,55.0,50.6,30.04,ESE,117,0.0,4.0,85,0.00,,---,0.00,VWS V14.00,2013-05-21 06:47:00,
2013-05-21 02:51:00,54.9,50.4,30.04,ESE,117,0.0,0.0,85,0.00,,---,0.00,VWS V14.00,2013-05-21 06:51:00,
2013-05-21 02:52:00,54.9,50.8,30.04,ESE,117,0.0,0.0,86,0.00,,---,0.00,VWS V14.00,2013-05-21 06:52:00,
2013-05-21 02:56:00,54.9,50.8,30.04,ESE,117,0.0,3.4,86,0.00,,---,0.00,VWS V14.00,2013-05-21 06:56:00,
2013-05-21 02:57:00,54.9,50.8,30.04,ESE,117,0.0,0.0,86,0.00,,---,0.00,VWS V14.00,2013-05-21 06:57:00,
2013-05-21 03:01:00,54.9,50.8,30.04,ESE,117,0.0,0.0,86,0.00,,---,0.00,VWS V14.00,2013-05-21 07:01:00,
2013-05-21 03:02:00,54.9,51.1,30.04,ESE,117,0.0,0.0,87,0.00,,---,0.00,VWS V14.00,2013-05-21 07:02:00,
2013-05-21 03:06:00,54.9,51.1,30.04,ESE,117,3.4,3.4,87,0.00,,---,0.00,VWS V14.00,2013-05-21 07:06:00,
2013-05-21 03:07:00,54.9,51.1,30.04,ESE,117,0.0,3.4,87,0.00,,---,0.00,VWS V14.00,2013-05-21 07:07:00,
2013-05-21 03:08:00,54.7,50.9,30.04,ESE,117,0.0,3.4,87,0.00,,---,0.00,VWS V14.00,2013-05-21 07:08:00,
2013-05-21 03:11:00,54.7,51.2,30.04,ESE,117,3.4,4.0,88,0.00,,---,0.00,VWS V14.00,2013-05-21 07:11:00,
2013-05-21 03:12:00,54.7,51.2,30.04,ESE,117,3.4,3.4,88,0.00,,---,0.00,VWS V14.00,2013-05-21 07:12:00,
2013-05-21 03:13:00,54.7,51.2,30.04,ENE,78,4.0,4.7,88,0.00,,---,0.00,VWS V14.00,2013-05-21 07:13:00,
2013-05-21 03:16:00,54.7,51.2,30.04,ENE,78,3.4,4.0,88,0.00,,---,0.00,VWS V14.00,2013-05-21 07:16:00,
2013-05-21 03:17:00,54.7,51.2,30.04,ENE,78,3.4,4.0,88,0.00,,---,0.00,VWS V14.00,2013-05-21 07:17:00,
2013-05-21 03:18:00,54.7,51.2,30.04,ENE,78,3.4,3.4,88,0.00,,---,0.00,VWS V14.00,2013-05-21 07:18:00,
2013-05-21 03:21:00,54.7,51.5,30.04,ENE,78,4.0,4.0,89,0.00,,---,0.00,VWS V14.00,2013-05-21 07:21:00,
2013-05-21 03:22:00,54.7,51.5,30.04,ENE,78,3.4,4.0,89,0.00,,---,0.00,VWS V14.00,2013-05-21 07:22:00,
2013-05-21 03:23:00,54.7,51.5,30.04,ENE,68,4.0,4.0,89,0.00,,---,0.00,VWS V14.00,2013-05-21 07:23:00,
2013-05-21 03:26:00,54.7,51.8,30.04,ENE,68,4.0,4.0,90,0.00,,---,0.00,VWS V14.00,2013-05-21 07:26:00,
2013-05-21 03:27:00,54.7,51.8,30.04,ENE,68,3.4,3.4,90,0.00,,---,0.00,VWS V14.00,2013-05-21 07:27:00,
2013-05-21 03:28:00,54.7,51.8,30.04,ENE,68,4.0,4.0,90,0.00,,---,0.00,VWS V14.00,2013-05-21 07:28:00,
2013-05-21 03:32:00,54.5,51.6,30.04,ENE,63,3.4,4.7,90,0.00,,---,0.00,VWS V14.00,2013-05-21 07:32:00,
2013-05-21 03:33:00,54.5,51.6,30.04,ENE,64,4.0,4.0,90,0.00,,---,0.00,VWS V14.00,2013-05-21 07:33:00,
2013-05-21 03:37:00,54.5,51.6,30.04,ENE,78,4.0,4.0,90,0.00,,---,0.00,VWS V14.00,2013-05-21 07:37:00,
2013-05-21 03:38:00,54.5,51.6,30.04,ENE,78,4.0,4.7,90,0.00,,---,0.00,VWS V14.00,2013-05-21 07:38:00,
2013-05-21 03:39:00,54.5,51.6,30.04,ENE,78,4.0,4.0,90,0.00,,---,0.00,VWS V14.00,2013-05-21 07:39:00,
2013-05-21 03:42:00,54.5,51.6,30.04,NE,49,4.0,4.7,90,0.00,,---,0.00,VWS V14.00,2013-05-21 07:42:00,
2013-05-21 03:43:00,54.3,51.5,30.04,NE,49,4.0,4.7,90,0.00,,---,0.00,VWS V14.00,2013-05-21 07:43:00,
2013-05-21 03:44:00,54.3,51.5,30.04,NE,36,4.0,5.4,90,0.00,,---,0.00,VWS V14.00,2013-05-21 07:44:00,
2013-05-21 03:47:00,54.0,51.1,30.04,ENE,60,4.0,4.7,90,0.00,,---,0.00,VWS V14.00,2013-05-21 07:47:00,
2013-05-21 03:48:00,53.8,50.9,30.04,ENE,60,4.7,4.7,90,0.00,,---,0.00,VWS V14.00,2013-05-21 07:48:00,
2013-05-21 03:49:00,53.8,50.9,30.04,ENE,60,4.7,4.7,90,0.00,,---,0.00,VWS V14.00,2013-05-21 07:49:00,
2013-05-21 03:52:00,53.2,50.4,30.04,ENE,60,5.4,5.4,90,0.00,,---,0.00,VWS V14.00,2013-05-21 07:52:00,
2013-05-21 03:53:00,53.2,50.4,30.04,ENE,60,4.7,5.4,90,0.00,,---,0.00,VWS V14.00,2013-05-21 07:53:00,
2013-05-21 03:54:00,53.1,50.2,30.04,ENE,60,4.0,4.0,90,0.00,,---,0.00,VWS V14.00,2013-05-21 07:54:00,
2013-05-21 03:57:00,53.1,49.9,30.04,NE,46,4.0,4.0,89,0.00,,---,0.00,VWS V14.00,2013-05-21 07:57:00,
2013-05-21 03:58:00,53.1,49.9,30.04,NE,46,4.0,4.0,89,0.00,,---,0.00,VWS V14.00,2013-05-21 07:58:00,
2013-05-21 03:59:00,53.1,49.9,30.04,NE,46,0.0,0.0,89,0.00,,---,0.00,VWS V14.00,2013-05-21 07:59:00,
2013-05-21 04:02:00,53.1,49.9,30.04,NE,46,3.4,4.7,89,0.00,,---,0.00,VWS V14.00,2013-05-21 08:02:00,
2013-05-21 04:03:00,53.1,49.9,30.04,NE,46,3.4,4.7,89,0.00,,---,0.00,VWS V14.00,2013-05-21 08:03:00,
2013-05-21 04:04:00,53.1,49.9,30.04,NE,46,4.0,4.7,89,0.00,,---,0.00,VWS V14.00,2013-05-21 08:04:00,
2013-05-21 04:07:00,52.9,49.7,30.04,ENE,63,4.0,4.0,89,0.00,,---,0.00,VWS V14.00,2013-05-21 08:07:00,
2013-05-21 04:08:00,52.9,49.7,30.04,ENE,63,3.4,4.0,89,0.00,,---,0.00,VWS V14.00,2013-05-21 08:08:00,
2013-05-21 04:09:00,52.7,49.5,30.04,ENE,63,4.7,4.7,89,0.00,,---,0.00,VWS V14.00,2013-05-21 08:09:00,
2013-05-21 04:12:00,52.7,49.5,30.04,ENE,57,4.0,4.7,89,0.00,,---,0.00,VWS V14.00,2013-05-21 08:12:00,
2013-05-21 04:13:00,52.7,49.5,30.04,ENE,71,3.4,4.0,89,0.00,,---,0.00,VWS V14.00,2013-05-21 08:13:00,
2013-05-21 04:14:00,52.7,49.5,30.04,ENE,77,4.7,4.7,89,0.00,,---,0.00,VWS V14.00,2013-05-21 08:14:00,
2013-05-21 04:18:00,52.5,49.4,30.04,East,81,4.7,4.7,89,0.00,,---,0.00,VWS V14.00,2013-05-21 08:18:00,
2013-05-21 04:19:00,52.3,49.2,30.04,East,96,4.0,4.0,89,0.00,,---,0.00,VWS V14.00,2013-05-21 08:19:00,
2013-05-21 04:23:00,51.3,47.8,30.04,ENE,61,4.7,4.7,88,0.00,,---,0.00,VWS V14.00,2013-05-21 08:23:00,
2013-05-21 04:24:00,51.1,47.7,30.04,ENE,61,3.4,5.4,88,0.00,,---,0.00,VWS V14.00,2013-05-21 08:24:00,
2013-05-21 04:28:00,50.5,46.5,30.04,NE,52,4.7,5.4,86,0.00,,---,0.00,VWS V14.00,2013-05-21 08:28:00,
2013-05-21 04:29:00,50.5,46.5,30.04,NE,52,4.7,5.4,86,0.00,,---,0.00,VWS V14.00,2013-05-21 08:29:00,
2013-05-21 04:30:00,50.4,46.3,30.04,NE,46,5.4,5.4,86,0.00,,---,0.00,VWS V14.00,2013-05-21 08:30:00,
2013-05-21 04:33:00,50.2,45.8,30.04,NE,56,4.0,4.0,85,0.00,,---,0.00,VWS V14.00,2013-05-21 08:33:00,
2013-05-21 04:34:00,50.2,45.8,30.04,NE,56,4.0,4.0,85,0.00,,---,0.00,VWS V14.00,2013-05-21 08:34:00,
2013-05-21 04:35:00,50.2,45.8,30.04,ENE,69,4.0,4.0,85,0.00,,---,0.00,VWS V14.00,2013-05-21 08:35:00,
2013-05-21 04:39:00,50.0,45.7,30.04,ENE,71,4.0,4.0,85,0.00,,---,0.00,VWS V14.00,2013-05-21 08:39:00,
2013-05-21 04:40:00,50.0,45.7,30.04,ENE,71,0.0,4.7,85,0.00,,---,0.00,VWS V14.00,2013-05-21 08:40:00,
2013-05-21 04:44:00,49.8,45.5,30.04,ENE,64,4.7,4.7,85,0.00,,---,0.00,VWS V14.00,2013-05-21 08:44:00,
2013-05-21 04:45:00,49.8,45.5,30.04,ENE,76,3.4,4.7,85,0.00,,---,0.00,VWS V14.00,2013-05-21 08:45:00,
2013-05-21 04:49:00,49.8,45.8,30.04,ENE,76,4.0,4.0,86,0.00,,---,0.00,VWS V14.00,2013-05-21 08:49:00,
2013-05-21 04:50:00,49.8,45.8,30.04,ENE,76,4.0,4.0,86,0.00,,---,0.00,VWS V14.00,2013-05-21 08:50:00,
2013-05-21 04:54:00,49.8,45.8,30.04,East,86,3.4,4.0,86,0.00,,---,0.00,VWS V14.00,2013-05-21 08:54:00,
2013-05-21 04:55:00,49.6,45.6,30.04,NE,35,4.7,4.7,86,0.00,,---,0.00,VWS V14.00,2013-05-21 08:55:00,
2013-05-21 04:59:00,49.6,45.6,30.04,ENE,68,3.4,3.4,86,0.00,,---,0.00,VWS V14.00,2013-05-21 08:59:00,
2013-05-21 05:00:00,49.6,45.6,30.04,ENE,72,4.0,4.0,86,0.00,,---,0.00,VWS V14.00,2013-05-21 09:00:00,
2013-05-21 05:01:00,49.5,45.5,30.04,ENE,72,3.4,4.0,86,0.00,,---,0.00,VWS V14.00,2013-05-21 09:01:00,
2013-05-21 05:04:00,49.5,45.5,30.04,ENE,63,4.0,4.0,86,0.00,,---,0.00,VWS V14.00,2013-05-21 09:04:00,
2013-05-21 05:05:00,49.5,45.5,30.04,ENE,63,4.0,4.0,86,0.00,,---,0.00,VWS V14.00,2013-05-21 09:05:00,
2013-05-21 05:06:00,49.5,45.8,30.04,ENE,63,4.0,4.7,87,0.00,,---,0.00,VWS V14.00,2013-05-21 09:06:00,
2013-05-21 05:09:00,49.3,45.6,30.01,ENE,64,3.4,3.4,87,0.00,,---,0.00,VWS V14.00,2013-05-21 09:09:00,
2013-05-21 05:10:00,49.3,45.6,30.01,ENE,75,4.0,4.0,87,0.00,,---,0.00,VWS V14.00,2013-05-21 09:10:00,
2013-05-21 05:11:00,49.3,45.6,30.01,ENE,75,4.0,4.0,87,0.00,,---,0.00,VWS V14.00,2013-05-21 09:11:00,
2013-05-21 05:14:00,49.3,45.6,30.01,ESE,104,4.0,4.0,87,0.00,,---,0.00,VWS V14.00,2013-05-21 09:14:00,
2013-05-21 05:15:00,49.3,45.6,30.01,ESE,104,3.4,4.7,87,0.00,,---,0.00,VWS V14.00,2013-05-21 09:15:00,
2013-05-21 05:16:00,49.3,45.6,30.01,ESE,104,4.7,4.7,87,0.00,,---,0.00,VWS V14.00,2013-05-21 09:16:00,
2013-05-21 05:17:00,49.3,45.9,30.01,ESE,104,4.0,4.7,88,0.00,,---,0.00,VWS V14.00,2013-05-21 09:17:00,
2013-05-21 05:19:00,49.3,45.9,30.01,ESE,123,6.7,7.4,88,0.00,,---,0.00,VWS V14.00,2013-05-21 09:19:00,
2013-05-21 05:20:00,49.3,45.9,30.01,ESE,119,6.0,8.7,88,0.00,,---,0.00,VWS V14.00,2013-05-21 09:20:00,
2013-05-21 05:21:00,49.3,45.9,30.01,ESE,111,5.4,5.4,88,0.00,,---,0.00,VWS V14.00,2013-05-21 09:21:00,
2013-05-21 05:22:00,49.3,45.9,30.01,East,97,4.0,5.4,88,0.00,,---,0.00,VWS V14.00,2013-05-21 09:22:00,
2013-05-21 05:24:00,49.1,45.7,30.04,ESE,115,6.0,6.0,88,0.00,,---,0.00,VWS V14.00,2013-05-21 09:24:00,
2013-05-21 05:25:00,49.1,45.7,30.04,ESE,116,8.7,8.7,88,0.00,,---,0.00,VWS V14.00,2013-05-21 09:25:00,
2013-05-21 05:26:00,49.5,46.4,30.04,ESE,106,6.0,6.0,89,0.00,,---,0.00,VWS V14.00,2013-05-21 09:26:00,
2013-05-21 05:27:00,49.5,46.4,30.04,ESE,113,4.0,6.0,89,0.00,,---,0.00,VWS V14.00,2013-05-21 09:27:00,
2013-05-21 05:29:00,49.8,47.0,30.04,ESE,117,4.7,4.7,90,0.00,,---,0.00,VWS V14.00,2013-05-21 09:29:00,
2013-05-21 05:30:00,49.8,47.0,30.04,ESE,119,3.4,4.7,90,0.00,,---,0.00,VWS V14.00,2013-05-21 09:30:00,
2013-05-21 05:31:00,50.2,47.4,30.04,ESE,112,0.0,4.0,90,0.00,,---,0.00,VWS V14.00,2013-05-21 09:31:00,
2013-05-21 05:32:00,50.2,47.4,30.04,ENE,70,4.0,4.0,90,0.00,,---,0.00,VWS V14.00,2013-05-21 09:32:00,
2013-05-21 05:34:00,50.5,48.0,30.04,ENE,70,0.0,4.7,91,0.00,,---,0.00,VWS V14.00,2013-05-21 09:34:00,
2013-05-21 05:35:00,50.5,48.0,30.04,ENE,70,0.0,4.7,91,0.00,,---,0.00,VWS V14.00,2013-05-21 09:35:00,
2013-05-21 05:36:00,50.9,48.4,30.04,ENE,70,3.4,4.0,91,0.00,,---,0.00,VWS V14.00,2013-05-21 09:36:00,
2013-05-21 05:37:00,50.9,48.7,30.04,ENE,70,0.0,4.0,92,0.00,,---,0.00,VWS V14.00,2013-05-21 09:37:00,
2013-05-21 05:40:00,51.3,49.0,30.04,ESE,104,0.0,4.0,92,0.00,,---,0.00,VWS V14.00,2013-05-21 09:40:00,
2013-05-21 05:41:00,51.3,49.0,30.04,ESE,104,0.0,3.4,92,0.00,,---,0.00,VWS V14.00,2013-05-21 09:41:00,
2013-05-21 05:42:00,51.3,49.3,30.04,ESE,104,0.0,0.0,93,0.00,,---,0.00,VWS V14.00,2013-05-21 09:42:00,
2013-05-21 05:45:00,51.4,49.5,30.04,ESE,104,0.0,0.0,93,0.00,,---,0.00,VWS V14.00,2013-05-21 09:45:00,
2013-05-21 05:46:00,51.4,49.5,30.04,ESE,104,0.0,0.0,93,0.00,,---,0.00,VWS V14.00,2013-05-21 09:46:00,
2013-05-21 05:47:00,51.4,49.5,30.04,ESE,104,0.0,0.0,93,0.00,,---,0.00,VWS V14.00,2013-05-21 09:47:00,
2013-05-21 05:50:00,51.4,49.5,30.04,ESE,104,0.0,0.0,93,0.00,,---,0.00,VWS V14.00,2013-05-21 09:50:00,
2013-05-21 05:51:00,51.4,49.5,30.04,ESE,104,0.0,0.0,93,0.04,,---,0.04,VWS V14.00,2013-05-21 09:51:00,
2013-05-21 05:52:00,51.6,50.0,30.04,ESE,104,0.0,0.0,94,0.04,,---,0.04,VWS V14.00,2013-05-21 09:52:00,
2013-05-21 05:55:00,52.7,51.0,30.04,ESE,119,4.7,4.7,94,0.04,,---,0.04,VWS V14.00,2013-05-21 09:55:00,
2013-05-21 05:56:00,52.9,51.2,30.04,ESE,112,0.0,3.4,94,0.04,,---,0.04,VWS V14.00,2013-05-21 09:56:00,
2013-05-21 05:58:00,53.1,51.4,30.04,ESE,105,3.4,3.4,94,0.04,,---,0.04,VWS V14.00,2013-05-21 09:58:00,
2013-05-21 06:00:00,53.2,51.8,30.04,SE,128,4.7,5.4,95,0.04,,---,0.04,VWS V14.00,2013-05-21 10:00:00,
2013-05-21 06:01:00,53.2,51.8,30.04,ESE,106,4.0,4.0,95,0.04,,---,0.04,VWS V14.00,2013-05-21 10:01:00,
2013-05-21 06:03:00,53.4,52.0,30.04,ESE,115,4.0,5.4,95,0.04,,---,0.04,VWS V14.00,2013-05-21 10:03:00,
2013-05-21 06:05:00,53.4,52.0,30.04,ESE,118,0.0,0.0,95,0.04,,---,0.04,VWS V14.00,2013-05-21 10:05:00,
2013-05-21 06:06:00,53.4,52.0,30.04,ESE,118,4.0,4.0,95,0.04,,---,0.04,VWS V14.00,2013-05-21 10:06:00,
2013-05-21 06:08:00,53.6,52.2,30.04,ESE,114,4.7,4.7,95,0.04,,---,0.04,VWS V14.00,2013-05-21 10:08:00,
2013-05-21 06:10:00,53.6,52.2,30.04,ESE,121,4.7,4.7,95,0.04,,---,0.04,VWS V14.00,2013-05-21 10:10:00,
2013-05-21 06:11:00,53.6,52.2,30.04,SE,134,6.0,6.0,95,0.04,,---,0.04,VWS V14.00,2013-05-21 10:11:00,
2013-05-21 06:12:00,53.8,52.4,30.04,SE,142,7.4,7.4,95,0.04,,---,0.04,VWS V14.00,2013-05-21 10:12:00,
2013-05-21 06:13:00,53.8,52.4,30.04,ESE,123,4.7,4.7,95,0.04,,---,0.04,VWS V14.00,2013-05-21 10:13:00,
2013-05-21 06:15:00,53.6,52.2,30.04,ESE,115,0.0,4.7,95,0.04,,---,0.04,VWS V14.00,2013-05-21 10:15:00,
2013-05-21 06:16:00,53.6,52.2,30.04,ESE,115,0.0,0.0,95,0.04,,---,0.04,VWS V14.00,2013-05-21 10:16:00,
2013-05-21 06:17:00,53.6,52.2,30.04,ESE,115,0.0,0.0,95,0.04,,---,0.04,VWS V14.00,2013-05-21 10:17:00,
2013-05-21 06:18:00,53.6,52.2,30.04,ESE,116,4.0,5.4,95,0.04,,---,0.04,VWS V14.00,2013-05-21 10:18:00,
2013-05-21 06:20:00,53.4,52.3,30.04,ESE,119,0.0,0.0,96,0.04,,---,0.04,VWS V14.00,2013-05-21 10:20:00,
2013-05-21 06:21:00,53.4,52.3,30.04,ESE,119,0.0,3.4,96,0.08,,---,0.08,VWS V14.00,2013-05-21 10:21:00,
2013-05-21 06:22:00,53.4,52.3,30.04,East,100,4.0,4.0,96,0.08,,---,0.08,VWS V14.00,2013-05-21 10:22:00,
2013-05-21 06:23:00,53.4,52.3,30.04,ESE,121,5.4,5.4,96,0.08,,---,0.08,VWS V14.00,2013-05-21 10:23:00,
2013-05-21 06:25:00,53.2,52.1,30.04,SE,135,5.4,5.4,96,0.08,,---,0.08,VWS V14.00,2013-05-21 10:25:00,
2013-05-21 06:26:00,53.2,52.1,30.04,SSE,156,4.0,5.4,96,0.08,,---,0.08,VWS V14.00,2013-05-21 10:26:00,
2013-05-21 06:27:00,53.2,52.1,30.04,ESE,117,0.0,0.0,96,0.08,,---,0.08,VWS V14.00,2013-05-21 10:27:00,
2013-05-21 06:28:00,53.2,52.1,30.04,SE,136,4.7,4.7,96,0.08,,---,0.08,VWS V14.00,2013-05-21 10:28:00,
2013-05-21 06:30:00,53.2,52.1,30.04,SE,142,4.0,4.0,96,0.08,,---,0.08,VWS V14.00,2013-05-21 10:30:00,
2013-05-21 06:31:00,53.1,52.0,30.04,SE,127,4.0,4.0,96,0.08,,---,0.08,VWS V14.00,2013-05-21 10:31:00,
2013-05-21 06:32:00,53.1,52.0,30.04,ESE,107,3.4,4.7,96,0.08,,---,0.08,VWS V14.00,2013-05-21 10:32:00,
2013-05-21 06:34:00,53.1,52.0,30.04,ESE,120,4.7,4.7,96,0.08,,---,0.08,VWS V14.00,2013-05-21 10:34:00,
2013-05-21 06:36:00,53.1,52.0,30.04,ESE,121,0.0,0.0,96,0.08,,---,0.08,VWS V14.00,2013-05-21 10:36:00,
2013-05-21 06:37:00,53.1,52.0,30.04,ESE,121,0.0,0.0,96,0.08,,---,0.08,VWS V14.00,2013-05-21 10:37:00,
2013-05-21 06:39:00,53.1,52.0,30.04,ESE,121,0.0,0.0,96,0.08,,---,0.08,VWS V14.00,2013-05-21 10:39:00,
2013-05-21 06:41:00,53.1,52.0,30.04,ESE,112,4.0,4.7,96,0.08,,---,0.08,VWS V14.00,2013-05-21 10:41:00,
2013-05-21 06:42:00,53.1,52.0,30.04,ESE,112,0.0,0.0,96,0.12,,---,0.12,VWS V14.00,2013-05-21 10:42:00,
2013-05-21 06:44:00,53.1,52.0,30.04,ESE,112,0.0,0.0,96,0.12,,---,0.12,VWS V14.00,2013-05-21 10:44:00,
2013-05-21 06:46:00,53.2,52.1,30.04,ESE,112,0.0,0.0,96,0.12,,---,0.12,VWS V14.00,2013-05-21 10:46:00,
2013-05-21 06:47:00,53.2,52.1,30.04,ESE,117,4.0,4.0,96,0.12,,---,0.12,VWS V14.00,2013-05-21 10:47:00,
2013-05-21 06:48:00,53.2,52.1,30.04,ESE,118,4.0,4.0,96,0.12,,---,0.12,VWS V14.00,2013-05-21 10:48:00,
2013-05-21 06:49:00,53.2,52.1,30.04,SE,139,0.0,4.7,96,0.12,,---,0.12,VWS V14.00,2013-05-21 10:49:00,
2013-05-21 06:51:00,53.2,52.1,30.04,East,93,3.4,4.0,96,0.12,,---,0.12,VWS V14.00,2013-05-21 10:51:00,
2013-05-21 06:52:00,53.2,52.1,30.04,East,93,0.0,0.0,96,0.08,,---,0.12,VWS V14.00,2013-05-21 10:52:00,
2013-05-21 06:53:00,53.1,52.0,30.01,East,93,0.0,0.0,96,0.08,,---,0.12,VWS V14.00,2013-05-21 10:53:00,
2013-05-21 06:54:00,53.1,52.0,30.01,East,93,0.0,0.0,96,0.08,,---,0.12,VWS V14.00,2013-05-21 10:54:00,
2013-05-21 06:56:00,53.1,52.0,30.01,East,93,0.0,0.0,96,0.08,,---,0.12,VWS V14.00,2013-05-21 10:56:00,
2013-05-21 06:57:00,53.2,52.1,30.01,East,93,0.0,0.0,96,0.08,,---,0.12,VWS V14.00,2013-05-21 10:57:00,
2013-05-21 06:58:00,53.2,52.1,30.01,East,93,0.0,0.0,96,0.08,,---,0.12,VWS V14.00,2013-05-21 10:58:00,
2013-05-21 07:00:00,53.2,52.1,30.01,East,93,0.0,0.0,96,0.08,,---,0.12,VWS V14.00,2013-05-21 11:00:00,
2013-05-21 07:01:00,53.2,52.1,30.01,East,93,0.0,0.0,96,0.08,,---,0.12,VWS V14.00,2013-05-21 11:01:00,
2013-05-21 07:02:00,53.1,52.0,30.01,East,93,0.0,0.0,96,0.08,,---,0.12,VWS V14.00,2013-05-21 11:02:00,
2013-05-21 07:03:00,53.1,52.0,30.01,East,93,0.0,0.0,96,0.08,,---,0.12,VWS V14.00,2013-05-21 11:03:00,
2013-05-21 07:05:00,53.2,52.1,30.01,East,93,0.0,3.4,96,0.08,,---,0.12,VWS V14.00,2013-05-21 11:05:00,
2013-05-21 07:06:00,53.2,52.1,30.01,East,93,0.0,0.0,96,0.08,,---,0.12,VWS V14.00,2013-05-21 11:06:00,
2013-05-21 07:08:00,53.2,52.4,30.01,East,93,0.0,0.0,97,0.08,,---,0.12,VWS V14.00,2013-05-21 11:08:00,
2013-05-21 07:11:00,53.2,52.4,30.01,East,93,0.0,0.0,97,0.12,,---,0.16,VWS V14.00,2013-05-21 11:11:00,
2013-05-21 07:13:00,53.2,52.4,30.01,East,93,0.0,0.0,97,0.12,,---,0.16,VWS V14.00,2013-05-21 11:13:00,
2013-05-21 07:16:00,53.4,52.6,30.01,ENE,64,0.0,4.0,97,0.12,,---,0.16,VWS V14.00,2013-05-21 11:16:00,
2013-05-21 07:18:00,53.4,52.6,30.01,ENE,64,0.0,0.0,97,0.12,,---,0.16,VWS V14.00,2013-05-21 11:18:00,
2013-05-21 07:21:00,53.4,52.6,30.01,ENE,64,0.0,0.0,97,0.12,,---,0.16,VWS V14.00,2013-05-21 11:21:00,
2013-05-21 07:22:00,53.4,52.6,30.01,ENE,64,0.0,0.0,97,0.08,,---,0.16,VWS V14.00,2013-05-21 11:22:00,
2013-05-21 07:23:00,53.4,52.6,30.01,ENE,64,0.0,0.0,97,0.08,,---,0.16,VWS V14.00,2013-05-21 11:23:00,
2013-05-21 07:26:00,53.4,52.6,30.01,ENE,64,0.0,0.0,97,0.08,,---,0.16,VWS V14.00,2013-05-21 11:26:00,
2013-05-21 07:27:00,53.4,52.6,30.01,ENE,64,0.0,0.0,97,0.08,,---,0.16,VWS V14.00,2013-05-21 11:27:00,
2013-05-21 07:28:00,53.4,52.6,30.01,ENE,64,0.0,0.0,97,0.08,,---,0.16,VWS V14.00,2013-05-21 11:28:00,
2013-05-21 07:29:00,53.6,52.8,30.01,ENE,64,0.0,0.0,97,0.08,,---,0.16,VWS V14.00,2013-05-21 11:29:00,
2013-05-21 07:31:00,53.6,52.8,30.01,ENE,64,0.0,0.0,97,0.08,,---,0.16,VWS V14.00,2013-05-21 11:31:00,
2013-05-21 07:32:00,53.6,52.8,30.01,ENE,64,0.0,0.0,97,0.08,,---,0.16,VWS V14.00,2013-05-21 11:32:00,
2013-05-21 07:34:00,53.6,52.8,30.01,ENE,64,0.0,0.0,97,0.08,,---,0.16,VWS V14.00,2013-05-21 11:34:00,
2013-05-21 07:36:00,53.8,53.0,30.01,ENE,64,0.0,0.0,97,0.08,,---,0.16,VWS V14.00,2013-05-21 11:36:00,
2013-05-21 07:37:00,53.8,53.0,30.01,ENE,64,0.0,0.0,97,0.08,,---,0.16,VWS V14.00,2013-05-21 11:37:00,
2013-05-21 07:39:00,53.8,53.0,30.01,ENE,64,0.0,0.0,97,0.08,,---,0.16,VWS V14.00,2013-05-21 11:39:00,
2013-05-21 07:41:00,53.8,53.0,30.01,ENE,64,0.0,0.0,97,0.08,,---,0.16,VWS V14.00,2013-05-21 11:41:00,
2013-05-21 07:42:00,53.8,53.0,30.01,ENE,64,0.0,0.0,97,0.04,,---,0.16,VWS V14.00,2013-05-21 11:42:00,
2013-05-21 07:44:00,53.8,53.0,30.01,ENE,64,0.0,0.0,97,0.04,,---,0.16,VWS V14.00,2013-05-21 11:44:00,
2013-05-21 07:46:00,53.8,53.0,30.01,ENE,64,0.0,0.0,97,0.08,,---,0.20,VWS V14.00,2013-05-21 11:46:00,
2013-05-21 07:47:00,53.8,53.0,30.01,ENE,64,3.4,3.4,97,0.08,,---,0.20,VWS V14.00,2013-05-21 11:47:00,
2013-05-21 07:49:00,54.0,53.1,30.01,South,184,4.7,5.4,97,0.12,,---,0.24,VWS V14.00,2013-05-21 11:49:00,
2013-05-21 07:52:00,54.3,53.5,30.01,East,79,4.0,5.4,97,0.28,,---,0.39,VWS V14.00,2013-05-21 11:52:00,
2013-05-21 07:53:00,54.5,53.7,30.01,East,88,4.0,5.4,97,0.28,,---,0.39,VWS V14.00,2013-05-21 11:53:00,
2013-05-21 07:54:00,54.5,53.7,30.01,East,88,0.0,4.0,97,0.28,,---,0.39,VWS V14.00,2013-05-21 11:54:00,
2013-05-21 07:57:00,54.5,53.7,30.01,East,98,3.4,3.4,97,0.28,,---,0.39,VWS V14.00,2013-05-21 11:57:00,
2013-05-21 07:58:00,54.7,53.8,30.01,East,98,3.4,3.4,97,0.28,,---,0.39,VWS V14.00,2013-05-21 11:58:00,
2013-05-21 07:59:00,54.7,53.8,30.01,East,98,0.0,0.0,97,0.28,,---,0.39,VWS V14.00,2013-05-21 11:59:00,
2013-05-21 08:00:00,54.7,53.8,30.01,East,98,0.0,0.0,97,0.28,,---,0.39,VWS V14.00,2013-05-21 12:00:00,
2013-05-21 08:02:00,54.7,53.8,30.01,East,98,0.0,0.0,97,0.28,,---,0.39,VWS V14.00,2013-05-21 12:02:00,
2013-05-21 08:03:00,54.7,53.8,30.01,East,98,0.0,0.0,97,0.28,,---,0.39,VWS V14.00,2013-05-21 12:03:00,
2013-05-21 08:05:00,54.7,53.8,30.01,East,98,0.0,0.0,97,0.28,,---,0.39,VWS V14.00,2013-05-21 12:05:00,
2013-05-21 08:07:00,54.7,53.8,30.01,East,98,0.0,0.0,97,0.28,,---,0.39,VWS V14.00,2013-05-21 12:07:00,
2013-05-21 08:08:00,54.7,53.8,29.98,East,98,0.0,0.0,97,0.28,,---,0.39,VWS V14.00,2013-05-21 12:08:00,
2013-05-21 08:10:00,54.7,53.8,29.98,East,98,0.0,0.0,97,0.28,,---,0.39,VWS V14.00,2013-05-21 12:10:00,
2013-05-21 08:12:00,54.7,53.8,29.98,East,98,0.0,0.0,97,0.24,,---,0.39,VWS V14.00,2013-05-21 12:12:00,
2013-05-21 08:13:00,54.7,53.8,29.98,East,98,0.0,0.0,97,0.24,,---,0.39,VWS V14.00,2013-05-21 12:13:00,
2013-05-21 08:15:00,54.7,53.8,29.98,East,98,0.0,0.0,97,0.24,,---,0.39,VWS V14.00,2013-05-21 12:15:00,
2013-05-21 08:17:00,54.7,53.8,29.98,East,98,0.0,0.0,97,0.24,,---,0.39,VWS V14.00,2013-05-21 12:17:00,
2013-05-21 08:18:00,54.7,53.8,29.98,East,98,0.0,0.0,97,0.24,,---,0.39,VWS V14.00,2013-05-21 12:18:00,
2013-05-21 08:20:00,54.7,53.8,29.98,East,98,0.0,0.0,97,0.24,,---,0.39,VWS V14.00,2013-05-21 12:20:00,
2013-05-21 08:23:00,54.9,54.0,29.98,East,98,0.0,0.0,97,0.28,,---,0.43,VWS V14.00,2013-05-21 12:23:00,
2013-05-21 08:25:00,54.9,54.0,29.98,East,98,0.0,0.0,97,0.28,,---,0.43,VWS V14.00,2013-05-21 12:25:00,
2013-05-21 08:28:00,55.0,54.2,29.98,East,98,0.0,0.0,97,0.28,,---,0.43,VWS V14.00,2013-05-21 12:28:00,
2013-05-21 08:29:00,55.0,54.2,29.98,East,98,0.0,0.0,97,0.28,,---,0.43,VWS V14.00,2013-05-21 12:29:00,
2013-05-21 08:30:00,55.0,54.2,29.98,East,98,0.0,3.4,97,0.28,,---,0.43,VWS V14.00,2013-05-21 12:30:00,
2013-05-21 08:33:00,55.2,54.4,29.98,East,98,0.0,0.0,97,0.28,,---,0.43,VWS V14.00,2013-05-21 12:33:00,
2013-05-21 08:34:00,55.2,54.4,29.98,East,98,0.0,0.0,97,0.28,,---,0.43,VWS V14.00,2013-05-21 12:34:00,
2013-05-21 08:35:00,55.2,54.4,29.98,East,98,0.0,0.0,97,0.28,,---,0.43,VWS V14.00,2013-05-21 12:35:00,
2013-05-21 08:38:00,55.2,54.4,30.01,East,98,0.0,0.0,97,0.28,,---,0.43,VWS V14.00,2013-05-21 12:38:00,
2013-05-21 08:39:00,55.2,54.4,30.01,East,98,0.0,0.0,97,0.28,,---,0.43,VWS V14.00,2013-05-21 12:39:00,
2013-05-21 08:40:00,55.2,54.4,30.01,East,98,0.0,0.0,97,0.28,,---,0.43,VWS V14.00,2013-05-21 12:40:00,
2013-05-21 08:43:00,55.2,54.4,30.01,East,98,0.0,3.4,97,0.28,,---,0.43,VWS V14.00,2013-05-21 12:43:00,
2013-05-21 08:44:00,55.2,54.7,30.01,East,98,0.0,0.0,98,0.31,,---,0.47,VWS V14.00,2013-05-21 12:44:00,
2013-05-21 08:45:00,55.2,54.7,30.01,East,98,4.7,4.7,98,0.31,,---,0.47,VWS V14.00,2013-05-21 12:45:00,
2013-05-21 08:46:00,55.2,54.7,30.01,East,98,4.7,4.7,98,0.31,,---,0.47,VWS V14.00,2013-05-21 12:46:00,
2013-05-21 08:48:00,55.2,54.7,30.01,East,98,0.0,0.0,98,0.28,,---,0.47,VWS V14.00,2013-05-21 12:48:00,
2013-05-21 08:49:00,55.2,54.7,30.01,East,98,3.4,3.4,98,0.28,,---,0.47,VWS V14.00,2013-05-21 12:49:00,
2013-05-21 08:50:00,55.4,54.6,30.01,East,98,0.0,0.0,97,0.20,,---,0.47,VWS V14.00,2013-05-21 12:50:00,
2013-05-21 08:51:00,55.4,54.6,30.01,East,98,0.0,0.0,97,0.16,,---,0.51,VWS V14.00,2013-05-21 12:51:00,
2013-05-21 08:53:00,55.4,54.6,29.98,East,98,0.0,0.0,97,0.12,,---,0.51,VWS V14.00,2013-05-21 12:53:00,
2013-05-21 08:54:00,55.4,54.6,29.98,East,98,0.0,0.0,97,0.12,,---,0.51,VWS V14.00,2013-05-21 12:54:00,
2013-05-21 08:56:00,55.4,54.6,29.98,East,98,0.0,0.0,97,0.12,,---,0.51,VWS V14.00,2013-05-21 12:56:00,
2013-05-21 08:57:00,55.4,54.6,29.98,East,98,0.0,0.0,97,0.16,,---,0.55,VWS V14.00,2013-05-21 12:57:00,
2013-05-21 08:58:00,55.4,54.6,29.98,East,98,3.4,3.4,97,0.16,,---,0.55,VWS V14.00,2013-05-21 12:58:00,
2013-05-21 08:59:00,55.6,54.8,29.98,East,98,3.4,4.0,97,0.16,,---,0.55,VWS V14.00,2013-05-21 12:59:00,
2013-05-21 09:00:00,55.6,54.8,29.98,East,98,4.0,4.0,97,0.16,,---,0.55,VWS V14.00,2013-05-21 13:00:00,
2013-05-21 09:01:00,55.6,54.8,29.98,East,98,0.0,0.0,97,0.16,,---,0.55,VWS V14.00,2013-05-21 13:01:00,
2013-05-21 09:02:00,55.6,54.8,29.98,East,98,0.0,0.0,97,0.16,,---,0.55,VWS V14.00,2013-05-21 13:02:00,
2013-05-21 09:03:00,55.6,54.8,29.98,East,98,0.0,0.0,97,0.16,,---,0.55,VWS V14.00,2013-05-21 13:03:00,
2013-05-21 09:04:00,55.6,54.8,29.98,East,98,0.0,0.0,97,0.16,,---,0.55,VWS V14.00,2013-05-21 13:04:00,
2013-05-21 09:05:00,55.6,54.8,29.98,East,98,3.4,3.4,97,0.16,,---,0.55,VWS V14.00,2013-05-21 13:05:00,
2013-05-21 09:06:00,55.6,54.8,29.98,East,83,4.0,4.7,97,0.16,,---,0.55,VWS V14.00,2013-05-21 13:06:00,
2013-05-21 09:07:00,55.8,54.9,29.98,East,79,3.4,4.0,97,0.16,,---,0.55,VWS V14.00,2013-05-21 13:07:00,
2013-05-21 09:08:00,55.8,54.9,29.98,East,84,3.4,4.7,97,0.16,,---,0.55,VWS V14.00,2013-05-21 13:08:00,
2013-05-21 09:09:00,55.8,54.9,29.98,East,84,3.4,3.4,97,0.16,,---,0.55,VWS V14.00,2013-05-21 13:09:00,
2013-05-21 09:10:00,55.8,54.9,29.98,East,101,4.0,4.0,97,0.16,,---,0.55,VWS V14.00,2013-05-21 13:10:00,
2013-05-21 09:11:00,55.8,54.9,29.98,East,97,3.4,3.4,97,0.16,,---,0.55,VWS V14.00,2013-05-21 13:11:00,
2013-05-21 09:12:00,55.8,54.9,29.98,East,100,4.0,4.0,97,0.16,,---,0.55,VWS V14.00,2013-05-21 13:12:00,
2013-05-21 09:13:00,55.8,54.9,29.98,ESE,109,4.0,4.0,97,0.16,,---,0.55,VWS V14.00,2013-05-21 13:13:00,
2013-05-21 09:14:00,55.8,54.9,29.98,East,79,4.7,4.7,97,0.16,,---,0.55,VWS V14.00,2013-05-21 13:14:00,
2013-05-21 09:15:00,55.8,54.9,29.98,East,87,5.4,5.4,97,0.16,,---,0.55,VWS V14.00,2013-05-21 13:15:00,
2013-05-21 09:16:00,55.8,54.9,29.98,ENE,76,3.4,4.7,97,0.16,,---,0.55,VWS V14.00,2013-05-21 13:16:00,
2013-05-21 09:17:00,55.8,54.9,29.98,ENE,63,4.7,5.4,97,0.16,,---,0.55,VWS V14.00,2013-05-21 13:17:00,
2013-05-21 09:18:00,55.8,54.9,29.98,East,79,4.0,4.0,97,0.16,,---,0.55,VWS V14.00,2013-05-21 13:18:00,
2013-05-21 09:19:00,55.8,54.9,29.98,East,79,0.0,3.4,97,0.16,,---,0.55,VWS V14.00,2013-05-21 13:19:00,
2013-05-21 09:20:00,55.8,54.9,29.98,ESE,114,0.0,4.7,97,0.16,,---,0.55,VWS V14.00,2013-05-21 13:20:00,
2013-05-21 09:21:00,55.8,54.9,29.98,East,88,4.7,4.7,97,0.12,,---,0.55,VWS V14.00,2013-05-21 13:21:00,
2013-05-21 09:22:00,55.8,54.9,29.98,ENE,67,4.0,4.0,97,0.12,,---,0.55,VWS V14.00,2013-05-21 13:22:00,
2013-05-21 09:23:00,55.8,54.9,29.98,ENE,69,3.4,4.0,97,0.12,,---,0.55,VWS V14.00,2013-05-21 13:23:00,
2013-05-21 09:24:00,55.8,54.9,29.98,ENE,69,4.0,4.0,97,0.12,,---,0.55,VWS V14.00,2013-05-21 13:24:00,
2013-05-21 09:25:00,55.8,54.9,29.98,ENE,77,4.0,4.7,97,0.12,,---,0.55,VWS V14.00,2013-05-21 13:25:00,
2013-05-21 09:26:00,55.8,54.9,29.98,ENE,76,4.0,4.0,97,0.12,,---,0.55,VWS V14.00,2013-05-21 13:26:00,
2013-05-21 09:28:00,55.8,54.9,29.98,East,83,3.4,4.0,97,0.12,,---,0.55,VWS V14.00,2013-05-21 13:28:00,
2013-05-21 09:30:00,55.8,54.9,29.98,East,93,4.0,4.0,97,0.12,,---,0.55,VWS V14.00,2013-05-21 13:30:00,
2013-05-21 09:31:00,55.8,54.9,29.98,ESE,105,4.0,4.0,97,0.12,,---,0.55,VWS V14.00,2013-05-21 13:31:00,
2013-05-21 09:33:00,55.8,54.9,29.98,ESE,105,0.0,3.4,97,0.12,,---,0.55,VWS V14.00,2013-05-21 13:33:00,
2013-05-21 09:35:00,55.8,54.9,29.98,East,86,0.0,4.0,97,0.12,,---,0.55,VWS V14.00,2013-05-21 13:35:00,
2013-05-21 09:36:00,55.8,54.9,29.98,East,91,4.0,4.0,97,0.12,,---,0.55,VWS V14.00,2013-05-21 13:36:00,
2013-05-21 09:37:00,55.9,55.1,30.01,East,91,0.0,3.4,97,0.12,,---,0.55,VWS V14.00,2013-05-21 13:37:00,
2013-05-21 09:38:00,55.9,55.1,30.01,East,94,3.4,4.0,97,0.12,,---,0.55,VWS V14.00,2013-05-21 13:38:00,
2013-05-21 09:39:00,55.9,55.1,30.01,East,99,3.4,4.0,97,0.12,,---,0.55,VWS V14.00,2013-05-21 13:39:00,
2013-05-21 09:40:00,55.9,55.1,30.01,East,92,0.0,0.0,97,0.12,,---,0.55,VWS V14.00,2013-05-21 13:40:00,
2013-05-21 09:41:00,55.9,55.1,30.01,SE,124,4.0,4.7,97,0.12,,---,0.55,VWS V14.00,2013-05-21 13:41:00,
2013-05-21 09:42:00,55.9,55.1,30.01,ESE,119,0.0,3.4,97,0.12,,---,0.55,VWS V14.00,2013-05-21 13:42:00,
2013-05-21 09:43:00,55.9,55.1,30.01,East,98,3.4,3.4,97,0.12,,---,0.55,VWS V14.00,2013-05-21 13:43:00,
2013-05-21 09:44:00,55.9,55.1,30.01,East,88,4.7,4.7,97,0.08,,---,0.55,VWS V14.00,2013-05-21 13:44:00,
2013-05-21 09:45:00,55.9,55.1,30.01,East,82,3.4,4.7,97,0.08,,---,0.55,VWS V14.00,2013-05-21 13:45:00,
2013-05-21 09:46:00,55.9,55.1,30.01,East,92,0.0,3.4,97,0.08,,---,0.55,VWS V14.00,2013-05-21 13:46:00,
2013-05-21 09:48:00,55.9,55.1,30.01,ESE,108,3.4,3.4,97,0.08,,---,0.55,VWS V14.00,2013-05-21 13:48:00,
2013-05-21 09:49:00,55.9,55.1,30.01,ESE,118,0.0,3.4,97,0.08,,---,0.55,VWS V14.00,2013-05-21 13:49:00,
2013-05-21 09:50:00,55.9,55.4,30.01,ESE,118,3.4,3.4,98,0.08,,---,0.55,VWS V14.00,2013-05-21 13:50:00,
2013-05-21 09:51:00,55.9,55.4,30.01,ESE,109,3.4,4.0,98,0.08,,---,0.55,VWS V14.00,2013-05-21 13:51:00,
2013-05-21 09:53:00,55.9,55.4,30.01,ESE,114,4.0,4.7,98,0.04,,---,0.55,VWS V14.00,2013-05-21 13:53:00,
2013-05-21 09:55:00,55.9,55.4,30.01,ESE,114,4.0,4.0,98,0.04,,---,0.55,VWS V14.00,2013-05-21 13:55:00,
2013-05-21 09:56:00,55.9,55.4,30.01,ESE,115,3.4,4.0,98,0.04,,---,0.55,VWS V14.00,2013-05-21 13:56:00,
2013-05-21 09:58:00,55.9,55.4,30.01,ESE,115,0.0,3.4,98,0.00,,---,0.55,VWS V14.00,2013-05-21 13:58:00,
2013-05-21 10:00:00,55.9,55.4,30.01,ESE,122,3.4,3.4,98,0.00,,---,0.55,VWS V14.00,2013-05-21 14:00:00,
2013-05-21 10:01:00,55.9,55.4,30.01,ESE,122,0.0,0.0,98,0.00,,---,0.55,VWS V14.00,2013-05-21 14:01:00,
2013-05-21 10:03:00,55.9,55.4,30.01,ESE,122,3.4,3.4,98,0.00,,---,0.55,VWS V14.00,2013-05-21 14:03:00,
2013-05-21 10:04:00,55.9,55.4,30.01,ESE,109,6.0,6.0,98,0.00,,---,0.55,VWS V14.00,2013-05-21 14:04:00,
2013-05-21 10:05:00,55.9,55.4,30.01,ESE,113,3.4,4.0,98,0.04,,---,0.59,VWS V14.00,2013-05-21 14:05:00,
2013-05-21 10:07:00,55.9,55.1,30.01,ESE,113,4.0,4.0,97,0.04,,---,0.59,VWS V14.00,2013-05-21 14:07:00,
2013-05-21 10:08:00,55.9,55.1,30.01,ESE,119,0.0,4.7,97,0.04,,---,0.59,VWS V14.00,2013-05-21 14:08:00,
2013-05-21 10:09:00,55.9,55.1,30.01,ESE,119,0.0,0.0,97,0.04,,---,0.59,VWS V14.00,2013-05-21 14:09:00,
2013-05-21 10:10:00,55.8,54.9,30.01,ESE,119,3.4,3.4,97,0.04,,---,0.59,VWS V14.00,2013-05-21 14:10:00,
2013-05-21 10:12:00,55.8,54.9,30.01,ESE,119,0.0,0.0,97,0.04,,---,0.59,VWS V14.00,2013-05-21 14:12:00,
2013-05-21 10:13:00,55.8,54.9,30.01,ESE,119,0.0,0.0,97,0.04,,---,0.59,VWS V14.00,2013-05-21 14:13:00,
2013-05-21 10:14:00,55.8,54.9,30.01,ESE,119,0.0,0.0,97,0.04,,---,0.59,VWS V14.00,2013-05-21 14:14:00,
2013-05-21 10:15:00,55.8,54.9,30.01,ESE,119,3.4,3.4,97,0.04,,---,0.59,VWS V14.00,2013-05-21 14:15:00,
2013-05-21 10:16:00,55.9,55.1,30.01,ESE,119,3.4,3.4,97,0.04,,---,0.59,VWS V14.00,2013-05-21 14:16:00,
2013-05-21 10:17:00,55.9,55.1,30.01,ESE,107,0.0,0.0,97,0.04,,---,0.59,VWS V14.00,2013-05-21 14:17:00,
2013-05-21 10:18:00,55.9,55.1,30.01,East,90,3.4,3.4,97,0.04,,---,0.59,VWS V14.00,2013-05-21 14:18:00,
2013-05-21 10:19:00,55.9,55.1,30.01,ESE,105,3.4,4.0,97,0.08,,---,0.63,VWS V14.00,2013-05-21 14:19:00,
2013-05-21 10:20:00,55.9,55.1,30.01,ESE,105,0.0,0.0,97,0.08,,---,0.63,VWS V14.00,2013-05-21 14:20:00,
2013-05-21 10:22:00,55.9,55.1,30.01,ESE,110,4.7,5.4,97,0.08,,---,0.63,VWS V14.00,2013-05-21 14:22:00,
2013-05-21 10:23:00,55.9,55.1,30.01,ESE,103,4.0,4.7,97,0.08,,---,0.63,VWS V14.00,2013-05-21 14:23:00,
2013-05-21 10:24:00,55.9,55.1,30.01,SE,136,0.0,6.0,97,0.08,,---,0.63,VWS V14.00,2013-05-21 14:24:00,
2013-05-21 10:25:00,55.9,55.1,30.01,SE,136,3.4,3.4,97,0.08,,---,0.63,VWS V14.00,2013-05-21 14:25:00,
2013-05-21 10:27:00,55.9,55.1,30.01,East,83,3.4,4.7,97,0.08,,---,0.63,VWS V14.00,2013-05-21 14:27:00,
2013-05-21 10:28:00,55.9,55.1,30.01,ESE,116,6.0,6.0,97,0.08,,---,0.63,VWS V14.00,2013-05-21 14:28:00,
2013-05-21 10:30:00,55.9,55.4,30.01,ESE,107,4.0,4.7,98,0.08,,---,0.63,VWS V14.00,2013-05-21 14:30:00,
2013-05-21 10:32:00,55.9,55.4,30.01,ESE,121,4.0,5.4,98,0.08,,---,0.63,VWS V14.00,2013-05-21 14:32:00,
2013-05-21 10:33:00,55.9,55.4,30.01,ESE,105,3.4,4.0,98,0.08,,---,0.63,VWS V14.00,2013-05-21 14:33:00,
2013-05-21 10:35:00,55.9,55.4,30.01,ESE,105,3.4,4.0,98,0.08,,---,0.63,VWS V14.00,2013-05-21 14:35:00,
2013-05-21 10:36:00,55.9,55.4,30.01,ESE,105,0.0,3.4,98,0.08,,---,0.63,VWS V14.00,2013-05-21 14:36:00,
2013-05-21 10:37:00,56.1,55.6,30.01,ESE,106,0.0,0.0,98,0.08,,---,0.63,VWS V14.00,2013-05-21 14:37:00,
2013-05-21 10:38:00,56.1,55.6,30.01,ESE,105,0.0,0.0,98,0.08,,---,0.63,VWS V14.00,2013-05-21 14:38:00,
2013-05-21 10:40:00,56.1,55.6,30.01,South,169,5.4,5.4,98,0.08,,---,0.63,VWS V14.00,2013-05-21 14:40:00,
2013-05-21 10:41:00,56.1,55.6,30.01,South,175,5.4,5.4,98,0.08,,---,0.63,VWS V14.00,2013-05-21 14:41:00,
2013-05-21 10:42:00,56.1,55.6,30.01,SSE,147,4.0,4.0,98,0.08,,---,0.63,VWS V14.00,2013-05-21 14:42:00,
2013-05-21 10:43:00,56.1,55.6,30.01,SSE,158,4.0,4.7,98,0.08,,---,0.63,VWS V14.00,2013-05-21 14:43:00,
2013-05-21 10:45:00,55.9,55.4,30.01,SE,146,0.0,0.0,98,0.08,,---,0.63,VWS V14.00,2013-05-21 14:45:00,
2013-05-21 10:46:00,55.9,55.4,30.01,SE,126,4.7,4.7,98,0.08,,---,0.63,VWS V14.00,2013-05-21 14:46:00,
2013-05-21 10:47:00,56.1,55.6,30.01,SE,126,0.0,4.0,98,0.08,,---,0.63,VWS V14.00,2013-05-21 14:47:00,
2013-05-21 10:48:00,56.1,55.6,30.01,SE,126,0.0,0.0,98,0.08,,---,0.63,VWS V14.00,2013-05-21 14:48:00,
2013-05-21 10:50:00,56.3,55.8,30.01,ESE,102,3.4,4.7,98,0.08,,---,0.63,VWS V14.00,2013-05-21 14:50:00,
2013-05-21 10:51:00,56.3,55.8,30.01,ESE,102,3.4,4.7,98,0.08,,---,0.63,VWS V14.00,2013-05-21 14:51:00,
2013-05-21 10:53:00,56.3,55.8,30.01,ESE,109,4.0,4.0,98,0.08,,---,0.63,VWS V14.00,2013-05-21 14:53:00,
2013-05-21 10:55:00,56.3,55.8,30.01,ESE,105,4.0,4.0,98,0.08,,---,0.63,VWS V14.00,2013-05-21 14:55:00,
2013-05-21 10:56:00,56.3,55.8,30.01,ESE,105,4.7,4.7,98,0.08,,---,0.63,VWS V14.00,2013-05-21 14:56:00,
2013-05-21 10:58:00,56.3,55.8,30.01,East,94,5.4,5.4,98,0.08,,---,0.63,VWS V14.00,2013-05-21 14:58:00,
2013-05-21 11:00:00,56.3,55.8,30.01,ESE,113,4.7,5.4,98,0.08,,---,0.63,VWS V14.00,2013-05-21 15:00:00,
2013-05-21 11:01:00,56.3,55.8,30.01,SE,131,4.0,5.4,98,0.08,,---,0.63,VWS V14.00,2013-05-21 15:01:00,
2013-05-21 11:03:00,56.5,55.9,30.01,SE,144,4.0,4.0,98,0.08,,---,0.63,VWS V14.00,2013-05-21 15:03:00,
2013-05-21 11:04:00,56.5,55.9,30.01,ESE,112,5.4,5.4,98,0.08,,---,0.63,VWS V14.00,2013-05-21 15:04:00,
2013-05-21 11:06:00,56.7,56.1,30.01,SE,139,4.0,4.7,98,0.04,,---,0.63,VWS V14.00,2013-05-21 15:06:00,
2013-05-21 11:08:00,56.8,56.3,30.01,SE,145,4.7,4.7,98,0.04,,---,0.63,VWS V14.00,2013-05-21 15:08:00,
2013-05-21 11:09:00,56.8,56.3,30.01,SE,145,3.4,4.7,98,0.04,,---,0.63,VWS V14.00,2013-05-21 15:09:00,
2013-05-21 11:11:00,56.8,56.3,30.01,SE,144,0.0,4.7,98,0.04,,---,0.63,VWS V14.00,2013-05-21 15:11:00,
2013-05-21 11:14:00,56.8,56.3,30.01,SE,133,4.0,4.0,98,0.04,,---,0.63,VWS V14.00,2013-05-21 15:14:00,
2013-05-21 11:16:00,56.7,56.1,30.01,ESE,105,3.4,4.7,98,0.04,,---,0.63,VWS V14.00,2013-05-21 15:16:00,
2013-05-21 11:19:00,56.7,55.8,30.01,ESE,108,0.0,4.7,97,0.04,,---,0.63,VWS V14.00,2013-05-21 15:19:00,
2013-05-21 11:21:00,56.7,55.8,30.01,ESE,122,0.0,0.0,97,0.00,,---,0.63,VWS V14.00,2013-05-21 15:21:00,
2013-05-21 11:24:00,56.8,56.0,30.01,SSE,156,0.0,0.0,97,0.00,,---,0.63,VWS V14.00,2013-05-21 15:24:00,
2013-05-21 11:26:00,56.8,56.0,30.01,SSE,155,4.7,4.7,97,0.00,,---,0.63,VWS V14.00,2013-05-21 15:26:00,
2013-05-21 11:29:00,56.8,56.0,30.01,SSE,155,0.0,0.0,97,0.00,,---,0.63,VWS V14.00,2013-05-21 15:29:00,
2013-05-21 11:30:00,57.0,56.2,30.01,SSE,155,0.0,0.0,97,0.00,,---,0.63,VWS V14.00,2013-05-21 15:30:00,
2013-05-21 11:31:00,57.0,56.2,30.01,SE,146,0.0,4.0,97,0.00,,---,0.63,VWS V14.00,2013-05-21 15:31:00,
2013-05-21 11:32:00,57.0,56.2,30.01,SE,146,0.0,4.0,97,0.00,,---,0.63,VWS V14.00,2013-05-21 15:32:00,
2013-05-21 11:34:00,57.2,56.4,30.01,SSE,158,4.0,5.4,97,0.00,,---,0.63,VWS V14.00,2013-05-21 15:34:00,
2013-05-21 11:35:00,57.2,56.4,30.01,SSE,153,0.0,5.4,97,0.00,,---,0.63,VWS V14.00,2013-05-21 15:35:00,
2013-05-21 11:36:00,57.2,56.4,30.01,South,176,4.7,4.7,97,0.00,,---,0.63,VWS V14.00,2013-05-21 15:36:00,
2013-05-21 11:37:00,57.2,56.4,30.01,South,173,5.4,5.4,97,0.00,,---,0.63,VWS V14.00,2013-05-21 15:37:00,
2013-05-21 11:40:00,57.0,56.2,30.01,South,176,6.0,7.4,97,0.00,,---,0.63,VWS V14.00,2013-05-21 15:40:00,
2013-05-21 11:42:00,57.0,56.2,30.01,SE,141,4.0,6.0,97,0.00,,---,0.63,VWS V14.00,2013-05-21 15:42:00,
2013-05-21 11:45:00,56.8,56.0,30.01,SE,146,4.7,5.4,97,0.00,,---,0.63,VWS V14.00,2013-05-21 15:45:00,
2013-05-21 11:47:00,56.8,56.0,30.01,SE,140,4.0,4.0,97,0.00,,---,0.63,VWS V14.00,2013-05-21 15:47:00,
2013-05-21 11:50:00,57.0,56.2,30.01,ESE,105,4.0,4.7,97,0.00,,---,0.63,VWS V14.00,2013-05-21 15:50:00,
2013-05-21 11:52:00,57.0,56.2,30.01,South,181,3.4,3.4,97,0.00,,---,0.63,VWS V14.00,2013-05-21 15:52:00,
2013-05-21 11:53:00,57.0,56.2,30.01,ESE,115,3.4,4.0,97,0.00,,---,0.63,VWS V14.00,2013-05-21 15:53:00,
2013-05-21 11:55:00,57.0,56.2,30.01,ESE,105,4.0,4.0,97,0.00,,---,0.63,VWS V14.00,2013-05-21 15:55:00,
2013-05-21 11:57:00,57.0,56.2,30.01,SE,136,4.0,4.0,97,0.00,,---,0.63,VWS V14.00,2013-05-21 15:57:00,
2013-05-21 11:58:00,57.0,56.2,30.01,SSE,158,5.4,5.4,97,0.00,,---,0.63,VWS V14.00,2013-05-21 15:58:00,
2013-05-21 12:00:00,57.2,56.4,30.01,SE,128,6.0,7.4,97,0.00,,---,0.63,VWS V14.00,2013-05-21 16:00:00,
2013-05-21 12:02:00,57.2,56.4,30.01,SE,137,4.0,6.0,97,0.00,,---,0.63,VWS V14.00,2013-05-21 16:02:00,
2013-05-21 12:03:00,57.0,56.2,30.01,South,169,6.0,6.0,97,0.00,,---,0.63,VWS V14.00,2013-05-21 16:03:00,
2013-05-21 12:05:00,57.0,56.2,30.01,ESE,113,6.0,7.4,97,0.00,,---,0.63,VWS V14.00,2013-05-21 16:05:00,
2013-05-21 12:07:00,57.0,56.2,30.01,SE,127,4.0,4.0,97,0.00,,---,0.63,VWS V14.00,2013-05-21 16:07:00,
2013-05-21 12:08:00,57.2,56.1,30.01,East,96,3.4,4.0,96,0.00,,---,0.63,VWS V14.00,2013-05-21 16:08:00,
2013-05-21 12:10:00,57.2,56.1,30.01,ESE,109,4.0,5.4,96,0.00,,---,0.63,VWS V14.00,2013-05-21 16:10:00,
2013-05-21 12:12:00,57.2,56.1,30.01,ESE,106,4.7,4.7,96,0.00,,---,0.63,VWS V14.00,2013-05-21 16:12:00,
2013-05-21 12:14:00,57.4,56.2,30.01,ESE,121,8.7,9.4,96,0.00,,---,0.63,VWS V14.00,2013-05-21 16:14:00,
2013-05-21 12:15:00,57.2,56.1,30.01,East,96,6.0,6.0,96,0.00,,---,0.63,VWS V14.00,2013-05-21 16:15:00,
2013-05-21 12:17:00,57.2,56.1,30.01,SE,131,8.7,8.7,96,0.00,,---,0.63,VWS V14.00,2013-05-21 16:17:00,
2013-05-21 12:18:00,57.2,56.1,30.01,SSE,156,8.7,8.7,96,0.00,,---,0.63,VWS V14.00,2013-05-21 16:18:00,
2013-05-21 12:19:00,57.2,55.8,30.01,East,82,5.4,8.1,95,0.00,,---,0.63,VWS V14.00,2013-05-21 16:19:00,
2013-05-21 12:20:00,57.2,55.8,30.01,SE,133,6.0,8.7,95,0.00,,---,0.63,VWS V14.00,2013-05-21 16:20:00,
2013-05-21 12:21:00,57.2,55.8,30.01,East,93,4.7,6.0,95,0.00,,---,0.63,VWS V14.00,2013-05-21 16:21:00,
2013-05-21 12:22:00,57.2,55.8,29.98,ESE,119,8.7,8.7,95,0.00,,---,0.63,VWS V14.00,2013-05-21 16:22:00,
2013-05-21 12:23:00,57.2,55.8,29.98,ESE,123,6.0,8.7,95,0.00,,---,0.63,VWS V14.00,2013-05-21 16:23:00,
2013-05-21 12:24:00,57.2,55.8,29.98,ESE,112,4.0,8.7,95,0.00,,---,0.63,VWS V14.00,2013-05-21 16:24:00,
2013-05-21 12:25:00,57.4,56.0,29.98,ESE,122,3.4,6.0,95,0.00,,---,0.63,VWS V14.00,2013-05-21 16:25:00,
2013-05-21 12:26:00,57.4,56.0,29.98,ESE,122,4.7,4.7,95,0.00,,---,0.63,VWS V14.00,2013-05-21 16:26:00,
2013-05-21 12:27:00,57.6,55.8,29.98,SSE,152,7.4,8.7,94,0.00,,---,0.63,VWS V14.00,2013-05-21 16:27:00,
2013-05-21 12:28:00,57.6,55.8,29.98,SE,144,6.0,8.7,94,0.00,,---,0.63,VWS V14.00,2013-05-21 16:28:00,
2013-05-21 12:29:00,57.7,56.0,29.98,SE,145,4.0,5.4,94,0.00,,---,0.63,VWS V14.00,2013-05-21 16:29:00,
2013-05-21 12:31:00,57.6,55.8,29.98,SE,129,6.0,6.0,94,0.00,,---,0.63,VWS V14.00,2013-05-21 16:31:00,
2013-05-21 12:33:00,57.4,55.7,29.98,ESE,116,7.4,8.1,94,0.00,,---,0.63,VWS V14.00,2013-05-21 16:33:00,
2013-05-21 12:34:00,57.4,55.7,29.98,SE,144,6.0,8.1,94,0.00,,---,0.63,VWS V14.00,2013-05-21 16:34:00,
2013-05-21 12:36:00,57.4,55.4,29.98,ESE,111,4.0,5.4,93,0.00,,---,0.63,VWS V14.00,2013-05-21 16:36:00,
2013-05-21 12:38:00,57.6,55.6,29.98,SE,143,4.0,8.1,93,0.00,,---,0.63,VWS V14.00,2013-05-21 16:38:00,
2013-05-21 12:39:00,57.4,55.4,29.98,SSE,151,4.0,5.4,93,0.00,,---,0.63,VWS V14.00,2013-05-21 16:39:00,
2013-05-21 12:41:00,57.6,55.3,29.98,SE,146,3.4,3.4,92,0.00,,---,0.63,VWS V14.00,2013-05-21 16:41:00,
2013-05-21 12:42:00,57.6,55.3,29.98,SE,130,6.0,6.0,92,0.00,,---,0.63,VWS V14.00,2013-05-21 16:42:00,
2013-05-21 12:43:00,57.6,55.3,29.98,SSE,160,6.0,6.0,92,0.00,,---,0.63,VWS V14.00,2013-05-21 16:43:00,
2013-05-21 12:44:00,57.6,55.3,29.98,SE,133,4.7,4.7,92,0.00,,---,0.63,VWS V14.00,2013-05-21 16:44:00,
2013-05-21 12:46:00,57.6,55.3,29.98,SE,142,6.0,9.4,92,0.00,,---,0.63,VWS V14.00,2013-05-21 16:46:00,
2013-05-21 12:47:00,57.6,55.0,29.98,SSE,153,4.7,6.0,91,0.00,,---,0.63,VWS V14.00,2013-05-21 16:47:00,
2013-05-21 12:48:00,57.6,55.0,29.98,ESE,116,6.0,8.1,91,0.00,,---,0.63,VWS V14.00,2013-05-21 16:48:00,
2013-05-21 12:49:00,57.7,55.1,29.98,East,99,6.0,6.0,91,0.00,,---,0.63,VWS V14.00,2013-05-21 16:49:00,
2013-05-21 12:51:00,57.6,54.7,29.98,East,90,7.4,9.4,90,0.00,,---,0.63,VWS V14.00,2013-05-21 16:51:00,
2013-05-21 12:52:00,57.7,54.8,30.01,SSE,147,6.0,6.0,90,0.00,,---,0.63,VWS V14.00,2013-05-21 16:52:00,
2013-05-21 12:53:00,57.6,54.7,30.01,ESE,111,6.0,6.0,90,0.00,,---,0.63,VWS V14.00,2013-05-21 16:53:00,
2013-05-21 12:54:00,57.6,54.3,30.01,SE,144,8.1,8.1,89,0.00,,---,0.63,VWS V14.00,2013-05-21 16:54:00,
2013-05-21 12:56:00,57.7,54.2,30.01,SSE,148,6.0,6.0,88,0.00,,---,0.63,VWS V14.00,2013-05-21 16:56:00,
2013-05-21 12:57:00,57.9,54.4,30.01,SSW,202,8.1,8.1,88,0.00,,---,0.63,VWS V14.00,2013-05-21 16:57:00,
2013-05-21 12:58:00,57.9,54.4,30.01,SE,129,3.4,4.0,88,0.00,,---,0.63,VWS V14.00,2013-05-21 16:58:00,
2013-05-21 12:59:00,57.9,54.4,30.01,ESE,111,4.0,4.7,88,0.00,,---,0.63,VWS V14.00,2013-05-21 16:59:00,
2013-05-21 13:00:00,57.9,54.4,30.01,ESE,111,0.0,6.0,88,0.00,,---,0.63,VWS V14.00,2013-05-21 17:00:00,
2013-05-21 13:02:00,58.3,54.8,30.01,ESE,115,4.7,4.7,88,0.00,,---,0.63,VWS V14.00,2013-05-21 17:02:00,
2013-05-21 13:03:00,58.3,54.4,30.01,South,189,6.0,6.0,87,0.00,,---,0.63,VWS V14.00,2013-05-21 17:03:00,
2013-05-21 13:04:00,58.3,54.4,30.01,SE,136,8.1,8.1,87,0.00,,---,0.63,VWS V14.00,2013-05-21 17:04:00,
2013-05-21 13:05:00,58.1,54.3,30.01,SSE,147,5.4,8.1,87,0.00,,---,0.63,VWS V14.00,2013-05-21 17:05:00,
2013-05-21 13:07:00,58.1,53.9,30.01,SSE,148,4.7,8.7,86,0.00,,---,0.63,VWS V14.00,2013-05-21 17:07:00,
2013-05-21 13:08:00,58.1,53.6,30.01,SSE,162,4.0,9.4,85,0.00,,---,0.63,VWS V14.00,2013-05-21 17:08:00,
2013-05-21 13:09:00,58.1,53.6,30.01,SSE,162,4.0,9.4,85,0.00,,---,0.63,VWS V14.00,2013-05-21 17:09:00,
2013-05-21 13:12:00,58.3,53.5,30.01,SE,139,8.1,8.7,84,0.00,,---,0.63,VWS V14.00,2013-05-21 17:12:00,
2013-05-21 13:14:00,58.1,53.0,30.01,SSW,206,6.0,6.0,83,0.00,,---,0.63,VWS V14.00,2013-05-21 17:14:00,
2013-05-21 13:15:00,58.5,53.3,30.01,South,177,8.1,8.1,83,0.00,,---,0.63,VWS V14.00,2013-05-21 17:15:00,
2013-05-21 13:17:00,58.3,52.8,30.01,SSE,149,5.4,5.4,82,0.00,,---,0.63,VWS V14.00,2013-05-21 17:17:00,
2013-05-21 13:19:00,58.5,53.0,30.01,SE,145,3.4,4.7,82,0.00,,---,0.63,VWS V14.00,2013-05-21 17:19:00,
2013-05-21 13:20:00,58.5,52.7,30.01,South,170,6.7,8.7,81,0.00,,---,0.63,VWS V14.00,2013-05-21 17:20:00,
2013-05-21 13:22:00,58.6,52.8,30.01,SE,141,4.7,4.7,81,0.00,,---,0.63,VWS V14.00,2013-05-21 17:22:00,
2013-05-21 13:23:00,58.6,52.8,30.01,SSE,154,0.0,0.0,81,0.00,,---,0.63,VWS V14.00,2013-05-21 17:23:00,
2013-05-21 13:24:00,58.8,53.0,30.01,SE,127,5.4,6.7,81,0.00,,---,0.63,VWS V14.00,2013-05-21 17:24:00,
2013-05-21 13:25:00,58.6,52.5,30.01,SSE,155,4.0,4.7,80,0.00,,---,0.63,VWS V14.00,2013-05-21 17:25:00,
2013-05-21 13:27:00,58.8,52.7,30.01,SSE,167,0.0,0.0,80,0.00,,---,0.63,VWS V14.00,2013-05-21 17:27:00,
2013-05-21 13:28:00,59.0,52.8,30.01,SSE,166,0.0,0.0,80,0.00,,---,0.63,VWS V14.00,2013-05-21 17:28:00,
2013-05-21 13:29:00,58.8,52.7,30.01,SE,142,4.7,6.0,80,0.00,,---,0.63,VWS V14.00,2013-05-21 17:29:00,
2013-05-21 13:31:00,58.8,52.7,30.01,SE,143,4.7,4.7,80,0.00,,---,0.63,VWS V14.00,2013-05-21 17:31:00,
2013-05-21 13:32:00,58.8,52.3,30.01,SE,145,5.4,5.4,79,0.00,,---,0.63,VWS V14.00,2013-05-21 17:32:00,
2013-05-21 13:34:00,58.8,52.0,30.01,SE,139,4.0,6.0,78,0.00,,---,0.63,VWS V14.00,2013-05-21 17:34:00,
2013-05-21 13:35:00,58.8,52.0,30.01,SE,145,4.7,5.4,78,0.00,,---,0.63,VWS V14.00,2013-05-21 17:35:00,
2013-05-21 13:36:00,58.8,51.6,30.01,SE,133,6.0,6.0,77,0.00,,---,0.63,VWS V14.00,2013-05-21 17:36:00,
2013-05-21 13:37:00,59.0,51.5,30.01,SE,133,7.4,8.1,76,0.00,,---,0.63,VWS V14.00,2013-05-21 17:37:00,
2013-05-21 13:39:00,59.0,51.5,30.01,SE,129,4.0,5.4,76,0.00,,---,0.63,VWS V14.00,2013-05-21 17:39:00,
2013-05-21 13:40:00,59.2,51.6,30.01,South,170,5.4,5.4,76,0.00,,---,0.63,VWS V14.00,2013-05-21 17:40:00,
2013-05-21 13:41:00,59.4,51.5,30.01,SSE,156,4.0,5.4,75,0.00,,---,0.63,VWS V14.00,2013-05-21 17:41:00,
2013-05-21 13:42:00,59.4,51.5,30.01,SSE,153,4.7,4.7,75,0.00,,---,0.63,VWS V14.00,2013-05-21 17:42:00,
2013-05-21 13:44:00,59.7,51.8,30.01,SE,137,4.0,7.4,75,0.00,,---,0.63,VWS V14.00,2013-05-21 17:44:00,
2013-05-21 13:45:00,59.5,51.3,30.01,South,171,4.0,5.4,74,0.00,,---,0.63,VWS V14.00,2013-05-21 17:45:00,
2013-05-21 13:46:00,59.5,50.9,30.01,SE,127,4.0,4.0,73,0.00,,---,0.63,VWS V14.00,2013-05-21 17:46:00,
2013-05-21 13:47:00,59.7,51.1,30.01,SE,127,0.0,0.0,73,0.00,,---,0.63,VWS V14.00,2013-05-21 17:47:00,
2013-05-21 13:49:00,59.7,50.7,30.01,SSW,199,6.0,6.0,72,0.00,,---,0.63,VWS V14.00,2013-05-21 17:49:00,
2013-05-21 13:50:00,59.7,50.7,30.01,SE,144,9.4,9.4,72,0.00,,---,0.63,VWS V14.00,2013-05-21 17:50:00,
2013-05-21 13:51:00,59.4,49.6,30.01,SSE,167,4.7,6.0,70,0.00,,---,0.63,VWS V14.00,2013-05-21 17:51:00,
2013-05-21 13:52:00,59.4,49.6,30.01,SE,129,4.7,6.0,70,0.00,,---,0.63,VWS V14.00,2013-05-21 17:52:00,
2013-05-21 13:54:00,59.2,48.2,30.01,SSE,167,6.0,9.4,67,0.00,,---,0.63,VWS V14.00,2013-05-21 17:54:00,
2013-05-21 13:55:00,59.0,48.1,30.01,SE,127,8.1,9.4,67,0.00,,---,0.63,VWS V14.00,2013-05-21 17:55:00,
2013-05-21 13:56:00,58.8,47.5,30.01,SE,145,6.0,6.7,66,0.00,,---,0.63,VWS V14.00,2013-05-21 17:56:00,
2013-05-21 13:57:00,58.8,47.5,30.01,SE,129,5.4,6.0,66,0.00,,---,0.63,VWS V14.00,2013-05-21 17:57:00,
2013-05-21 13:59:00,58.8,47.5,30.01,SE,145,4.0,6.0,66,0.00,,---,0.63,VWS V14.00,2013-05-21 17:59:00,
2013-05-21 14:00:00,58.6,47.3,30.01,ESE,117,8.1,8.1,66,0.00,,---,0.63,VWS V14.00,2013-05-21 18:00:00,
2013-05-21 14:02:00,58.6,47.3,30.01,SE,126,4.7,6.0,66,0.00,,---,0.63,VWS V14.00,2013-05-21 18:02:00,
2013-05-21 14:04:00,59.0,48.1,30.01,SSE,163,4.0,8.7,67,0.00,,---,0.63,VWS V14.00,2013-05-21 18:04:00,
2013-05-21 14:05:00,58.8,48.3,30.01,SSE,154,5.4,8.7,68,0.00,,---,0.63,VWS V14.00,2013-05-21 18:05:00,
2013-05-21 14:06:00,59.0,48.1,30.01,SE,144,6.0,8.7,67,0.00,,---,0.63,VWS V14.00,2013-05-21 18:06:00,
2013-05-21 14:07:00,59.0,48.1,30.01,SSE,162,6.0,6.0,67,0.00,,---,0.63,VWS V14.00,2013-05-21 18:07:00,
2013-05-21 14:09:00,59.2,48.2,29.98,SE,144,4.0,4.0,67,0.00,,---,0.63,VWS V14.00,2013-05-21 18:09:00,
2013-05-21 14:10:00,59.2,48.2,29.98,SSE,153,3.4,5.4,67,0.00,,---,0.63,VWS V14.00,2013-05-21 18:10:00,
2013-05-21 14:11:00,59.5,48.6,29.98,SSE,153,0.0,0.0,67,0.00,,---,0.63,VWS V14.00,2013-05-21 18:11:00,
2013-05-21 14:12:00,59.7,48.8,29.98,SSE,153,0.0,0.0,67,0.00,,---,0.63,VWS V14.00,2013-05-21 18:12:00,
2013-05-21 14:13:00,59.9,49.3,29.98,SSE,153,0.0,0.0,68,0.00,,---,0.63,VWS V14.00,2013-05-21 18:13:00,
2013-05-21 14:15:00,60.4,50.2,29.98,SSE,153,0.0,0.0,69,0.00,,---,0.63,VWS V14.00,2013-05-21 18:15:00,
2013-05-21 14:17:00,60.3,48.5,29.98,SE,143,3.4,5.4,65,0.00,,---,0.63,VWS V14.00,2013-05-21 18:17:00,
2013-05-21 14:18:00,60.1,46.6,29.98,SE,146,5.4,6.0,61,0.00,,---,0.63,VWS V14.00,2013-05-21 18:18:00,
2013-05-21 14:20:00,60.3,40.5,29.98,East,83,4.0,4.0,48,0.00,,---,0.63,VWS V14.00,2013-05-21 18:20:00,
2013-05-21 14:21:00,60.3,40.0,29.98,East,95,0.0,4.7,47,0.00,,---,0.63,VWS V14.00,2013-05-21 18:21:00,
2013-05-21 14:22:00,60.6,39.8,29.98,East,99,0.0,0.0,46,0.00,,---,0.63,VWS V14.00,2013-05-21 18:22:00,
2013-05-21 14:23:00,61.0,40.1,29.98,ESE,111,0.0,0.0,46,0.00,,---,0.63,VWS V14.00,2013-05-21 18:23:00,
2013-05-21 14:25:00,61.3,40.4,29.98,SE,124,0.0,0.0,46,0.00,,---,0.63,VWS V14.00,2013-05-21 18:25:00,
2013-05-21 14:26:00,61.5,40.0,29.98,SE,134,0.0,0.0,45,0.00,,---,0.63,VWS V14.00,2013-05-21 18:26:00,
2013-05-21 14:27:00,61.2,39.1,29.98,SE,146,4.7,4.7,44,0.00,,---,0.63,VWS V14.00,2013-05-21 18:27:00,
2013-05-21 14:28:00,61.0,35.2,29.98,ESE,108,4.0,4.0,38,0.00,,---,0.63,VWS V14.00,2013-05-21 18:28:00,
2013-05-21 14:30:00,61.3,35.5,29.98,SE,144,4.7,4.7,38,0.00,,---,0.63,VWS V14.00,2013-05-21 18:30:00,
2013-05-21 14:31:00,61.5,36.3,29.98,SE,146,4.7,4.7,39,0.00,,---,0.63,VWS V14.00,2013-05-21 18:31:00,
2013-05-21 14:32:00,61.7,36.5,29.98,SE,146,0.0,4.7,39,0.00,,---,0.63,VWS V14.00,2013-05-21 18:32:00,
2013-05-21 14:33:00,61.9,36.7,29.98,South,179,3.4,3.4,39,0.00,,---,0.63,VWS V14.00,2013-05-21 18:33:00,
2013-05-21 14:35:00,61.7,35.2,29.98,ESE,107,0.0,0.0,37,0.00,,---,0.63,VWS V14.00,2013-05-21 18:35:00,
2013-05-21 14:36:00,61.7,35.2,29.98,ESE,109,3.4,4.0,37,0.00,,---,0.63,VWS V14.00,2013-05-21 18:36:00,
2013-05-21 14:37:00,61.9,35.3,29.98,ESE,109,0.0,4.0,37,0.00,,---,0.63,VWS V14.00,2013-05-21 18:37:00,
2013-05-21 14:38:00,61.7,35.2,29.98,East,93,0.0,0.0,37,0.00,,---,0.63,VWS V14.00,2013-05-21 18:38:00,
2013-05-21 14:40:00,61.7,33.8,29.98,SSE,147,6.0,6.0,35,0.00,,---,0.63,VWS V14.00,2013-05-21 18:40:00,
2013-05-21 14:41:00,61.9,34.7,29.98,ESE,104,0.0,3.4,36,0.00,,---,0.63,VWS V14.00,2013-05-21 18:41:00,
2013-05-21 14:42:00,61.9,34.0,29.98,SSE,147,0.0,4.0,35,0.00,,---,0.63,VWS V14.00,2013-05-21 18:42:00,
2013-05-21 14:43:00,62.1,34.1,29.98,SE,129,0.0,4.0,35,0.00,,---,0.63,VWS V14.00,2013-05-21 18:43:00,
2013-05-21 14:44:00,61.9,34.0,29.98,ESE,106,4.0,5.4,35,0.00,,---,0.63,VWS V14.00,2013-05-21 18:44:00,
2013-05-21 14:45:00,62.2,35.0,29.98,SE,138,0.0,0.0,36,0.00,,---,0.63,VWS V14.00,2013-05-21 18:45:00,
2013-05-21 14:46:00,62.4,35.1,29.98,SE,135,0.0,0.0,36,0.00,,---,0.63,VWS V14.00,2013-05-21 18:46:00,
2013-05-21 14:47:00,62.4,35.1,29.98,SE,136,0.0,0.0,36,0.00,,---,0.63,VWS V14.00,2013-05-21 18:47:00,
2013-05-21 14:48:00,62.6,35.3,29.98,SE,136,0.0,0.0,36,0.00,,---,0.63,VWS V14.00,2013-05-21 18:48:00,
2013-05-21 14:49:00,63.0,35.6,29.98,SE,132,0.0,0.0,36,0.00,,---,0.63,VWS V14.00,2013-05-21 18:49:00,
2013-05-21 14:50:00,62.6,34.6,29.98,East,88,0.0,3.4,35,0.00,,---,0.63,VWS V14.00,2013-05-21 18:50:00,
2013-05-21 14:51:00,62.8,34.8,29.98,East,94,0.0,0.0,35,0.00,,---,0.63,VWS V14.00,2013-05-21 18:51:00,
2013-05-21 14:52:00,63.1,35.8,29.98,East,94,0.0,0.0,36,0.00,,---,0.63,VWS V14.00,2013-05-21 18:52:00,
2013-05-21 14:53:00,63.3,35.9,29.98,East,94,0.0,0.0,36,0.00,,---,0.63,VWS V14.00,2013-05-21 18:53:00,
2013-05-21 14:54:00,63.5,35.4,29.98,East,94,0.0,0.0,35,0.00,,---,0.63,VWS V14.00,2013-05-21 18:54:00,
2013-05-21 14:55:00,63.9,35.0,29.98,South,189,0.0,0.0,34,0.00,,---,0.63,VWS V14.00,2013-05-21 18:55:00,
2013-05-21 14:57:00,63.5,33.9,29.98,SE,144,0.0,0.0,33,0.00,,---,0.63,VWS V14.00,2013-05-21 18:57:00,
2013-05-21 14:58:00,63.3,31.4,29.98,SSE,152,0.0,0.0,30,0.00,,---,0.63,VWS V14.00,2013-05-21 18:58:00,
2013-05-21 15:00:00,63.9,33.5,29.98,SW,223,0.0,0.0,32,0.00,,---,0.63,VWS V14.00,2013-05-21 19:00:00,
2013-05-21 15:02:00,64.0,35.1,29.98,South,174,0.0,0.0,34,0.00,,---,0.63,VWS V14.00,2013-05-21 19:02:00,
2013-05-21 15:03:00,63.9,34.2,29.98,SSE,154,0.0,0.0,33,0.00,,---,0.63,VWS V14.00,2013-05-21 19:03:00,
2013-05-21 15:05:00,63.9,31.9,29.98,SSE,158,0.0,0.0,30,0.00,,---,0.63,VWS V14.00,2013-05-21 19:05:00,
2013-05-21 15:07:00,63.7,30.0,29.98,SE,142,4.0,4.0,28,0.00,,---,0.63,VWS V14.00,2013-05-21 19:07:00,
2013-05-21 15:08:00,63.9,31.0,29.98,SSE,156,0.0,0.0,29,0.00,,---,0.63,VWS V14.00,2013-05-21 19:08:00,
2013-05-21 15:10:00,63.9,32.7,29.98,SSE,156,0.0,0.0,31,0.00,,---,0.63,VWS V14.00,2013-05-21 19:10:00,
2013-05-21 15:11:00,63.7,32.5,29.98,SSE,156,0.0,0.0,31,0.00,,---,0.63,VWS V14.00,2013-05-21 19:11:00,
2013-05-21 15:12:00,63.7,34.1,29.98,SSE,156,0.0,0.0,33,0.00,,---,0.63,VWS V14.00,2013-05-21 19:12:00,
2013-05-21 15:13:00,63.5,33.9,29.98,SSE,156,0.0,0.0,33,0.00,,---,0.63,VWS V14.00,2013-05-21 19:13:00,
2013-05-21 15:15:00,63.5,33.9,29.98,SSE,156,0.0,0.0,33,0.00,,---,0.63,VWS V14.00,2013-05-21 19:15:00,
2013-05-21 15:16:00,63.5,34.7,29.98,SSE,156,0.0,0.0,34,0.00,,---,0.63,VWS V14.00,2013-05-21 19:16:00,
2013-05-21 15:17:00,63.5,33.9,29.98,SE,130,0.0,0.0,33,0.00,,---,0.63,VWS V14.00,2013-05-21 19:17:00,
2013-05-21 15:18:00,63.1,33.6,29.98,ESE,105,0.0,0.0,33,0.00,,---,0.63,VWS V14.00,2013-05-21 19:18:00,
2013-05-21 15:20:00,63.3,34.5,29.98,East,100,0.0,0.0,34,0.00,,---,0.63,VWS V14.00,2013-05-21 19:20:00,
2013-05-21 15:21:00,63.1,34.3,29.98,East,100,0.0,0.0,34,0.00,,---,0.63,VWS V14.00,2013-05-21 19:21:00,
2013-05-21 15:22:00,63.3,33.8,29.98,East,100,0.0,0.0,33,0.00,,---,0.63,VWS V14.00,2013-05-21 19:22:00,
2013-05-21 15:23:00,63.1,33.6,29.98,East,87,0.0,0.0,33,0.00,,---,0.63,VWS V14.00,2013-05-21 19:23:00,
2013-05-21 15:24:00,63.1,33.6,29.98,East,87,0.0,0.0,33,0.00,,---,0.63,VWS V14.00,2013-05-21 19:24:00,
2013-05-21 15:26:00,63.5,33.9,29.98,East,87,0.0,0.0,33,0.00,,---,0.63,VWS V14.00,2013-05-21 19:26:00,
2013-05-21 15:27:00,63.7,34.1,29.98,East,87,0.0,0.0,33,0.00,,---,0.63,VWS V14.00,2013-05-21 19:27:00,
2013-05-21 15:29:00,63.9,35.0,29.98,East,87,0.0,0.0,34,0.00,,---,0.63,VWS V14.00,2013-05-21 19:29:00,
2013-05-21 15:31:00,64.2,34.5,29.98,East,87,0.0,0.0,33,0.00,,---,0.63,VWS V14.00,2013-05-21 19:31:00,
2013-05-21 15:32:00,64.2,34.5,29.98,East,87,0.0,0.0,33,0.00,,---,0.63,VWS V14.00,2013-05-21 19:32:00,
2013-05-21 15:34:00,64.4,31.5,29.98,East,87,0.0,0.0,29,0.00,,---,0.63,VWS V14.00,2013-05-21 19:34:00,
2013-05-21 15:36:00,64.4,29.7,29.98,East,92,0.0,0.0,27,0.00,,---,0.63,VWS V14.00,2013-05-21 19:36:00,
2013-05-21 15:37:00,64.4,28.8,29.98,East,92,0.0,0.0,26,0.00,,---,0.63,VWS V14.00,2013-05-21 19:37:00,
2013-05-21 15:39:00,64.6,29.0,29.98,East,92,0.0,0.0,26,0.00,,---,0.63,VWS V14.00,2013-05-21 19:39:00,
2013-05-21 15:41:00,65.1,30.3,29.98,South,190,0.0,4.0,27,0.00,,---,0.63,VWS V14.00,2013-05-21 19:41:00,
2013-05-21 15:42:00,65.1,30.3,29.98,South,190,0.0,4.0,27,0.00,,---,0.63,VWS V14.00,2013-05-21 19:42:00,
2013-05-21 15:44:00,65.3,29.6,29.98,SSE,151,0.0,0.0,26,0.00,,---,0.63,VWS V14.00,2013-05-21 19:44:00,
2013-05-21 15:46:00,65.5,28.8,29.98,SE,128,0.0,0.0,25,0.00,,---,0.63,VWS V14.00,2013-05-21 19:46:00,
2013-05-21 15:47:00,65.5,27.8,29.98,SE,128,0.0,3.4,24,0.00,,---,0.63,VWS V14.00,2013-05-21 19:47:00,
2013-05-21 15:49:00,65.8,29.1,29.98,SSW,196,4.0,4.0,25,0.00,,---,0.63,VWS V14.00,2013-05-21 19:49:00,
2013-05-21 15:52:00,65.1,26.4,29.98,SSE,147,4.7,4.7,23,0.00,,---,0.63,VWS V14.00,2013-05-21 19:52:00,
2013-05-21 15:53:00,65.3,27.6,29.98,SSE,149,4.0,6.0,24,0.00,,---,0.63,VWS V14.00,2013-05-21 19:53:00,
2013-05-21 15:54:00,65.3,27.6,30.01,SE,140,0.0,5.4,24,0.00,,---,0.63,VWS V14.00,2013-05-21 19:54:00,
2013-05-21 15:55:00,65.5,27.8,30.01,SE,140,0.0,5.4,24,0.00,,---,0.63,VWS V14.00,2013-05-21 19:55:00,
2013-05-21 15:57:00,66.0,29.2,30.01,ESE,104,3.4,3.4,25,0.00,,---,0.63,VWS V14.00,2013-05-21 19:57:00,
2013-05-21 15:58:00,66.4,28.5,30.01,ESE,104,0.0,0.0,24,0.00,,---,0.63,VWS V14.00,2013-05-21 19:58:00,
2013-05-21 16:00:00,66.7,27.8,30.01,SSW,204,0.0,0.0,23,0.00,,---,0.63,VWS V14.00,2013-05-21 20:00:00,
2013-05-21 16:02:00,67.6,28.5,30.01,SSW,204,0.0,0.0,23,0.00,,---,0.63,VWS V14.00,2013-05-21 20:02:00,
2013-05-21 16:03:00,67.8,27.6,30.01,South,174,0.0,0.0,22,0.00,,---,0.63,VWS V14.00,2013-05-21 20:03:00,
2013-05-21 16:05:00,68.4,28.1,30.01,SSE,165,0.0,0.0,22,0.00,,---,0.63,VWS V14.00,2013-05-21 20:05:00,
2013-05-21 16:07:00,68.5,25.9,30.01,SSW,212,0.0,0.0,20,0.00,,---,0.63,VWS V14.00,2013-05-21 20:07:00,
2013-05-21 16:08:00,68.7,26.1,30.01,SSW,212,0.0,0.0,20,0.00,,---,0.63,VWS V14.00,2013-05-21 20:08:00,
2013-05-21 16:10:00,68.4,25.8,30.01,SE,128,0.0,0.0,20,0.00,,---,0.63,VWS V14.00,2013-05-21 20:10:00,
2013-05-21 16:12:00,68.2,25.6,30.01,SE,128,0.0,0.0,20,0.00,,---,0.63,VWS V14.00,2013-05-21 20:12:00,
2013-05-21 16:14:00,68.2,25.6,30.01,SSW,202,0.0,0.0,20,0.00,,---,0.63,VWS V14.00,2013-05-21 20:14:00,
2013-05-21 16:15:00,68.5,25.9,30.01,West,262,0.0,0.0,20,0.00,,---,0.63,VWS V14.00,2013-05-21 20:15:00,
2013-05-21 16:17:00,68.4,25.8,30.01,South,170,0.0,0.0,20,0.00,,---,0.63,VWS V14.00,2013-05-21 20:17:00,
2013-05-21 16:19:00,67.8,25.3,30.01,SE,141,0.0,0.0,20,0.00,,---,0.63,VWS V14.00,2013-05-21 20:19:00,
2013-05-21 16:20:00,67.8,25.3,30.01,SE,141,0.0,0.0,20,0.00,,---,0.63,VWS V14.00,2013-05-21 20:20:00,
2013-05-21 16:21:00,67.6,25.2,30.01,SE,129,0.0,0.0,20,0.00,,---,0.63,VWS V14.00,2013-05-21 20:21:00,
2013-05-21 16:22:00,67.3,24.9,30.01,ESE,109,0.0,0.0,20,0.00,,---,0.63,VWS V14.00,2013-05-21 20:22:00,
2013-05-21 16:24:00,67.1,27.0,30.01,ESE,109,0.0,0.0,22,0.00,,---,0.63,VWS V14.00,2013-05-21 20:24:00,
2013-05-21 16:25:00,67.1,27.0,30.01,ESE,109,0.0,0.0,22,0.00,,---,0.63,VWS V14.00,2013-05-21 20:25:00,
2013-05-21 16:26:00,66.9,26.9,30.01,ESE,109,0.0,0.0,22,0.00,,---,0.63,VWS V14.00,2013-05-21 20:26:00,
2013-05-21 16:27:00,67.1,27.0,30.01,ESE,109,0.0,0.0,22,0.00,,---,0.63,VWS V14.00,2013-05-21 20:27:00,
2013-05-21 16:28:00,67.1,27.0,30.01,ESE,109,0.0,0.0,22,0.00,,---,0.63,VWS V14.00,2013-05-21 20:28:00,
2013-05-21 16:29:00,67.3,28.2,30.01,ESE,109,0.0,0.0,23,0.00,,---,0.63,VWS V14.00,2013-05-21 20:29:00,
2013-05-21 16:31:00,67.3,27.2,30.01,NNE,15,0.0,0.0,22,0.00,,---,0.63,VWS V14.00,2013-05-21 20:31:00,
2013-05-21 16:32:00,67.5,28.4,30.01,NNE,15,0.0,0.0,23,0.00,,---,0.63,VWS V14.00,2013-05-21 20:32:00,
2013-05-21 16:33:00,67.6,28.5,30.01,NNE,15,0.0,0.0,23,0.00,,---,0.63,VWS V14.00,2013-05-21 20:33:00,
2013-05-21 16:34:00,68.0,27.8,30.01,NNE,15,0.0,0.0,22,0.00,,---,0.63,VWS V14.00,2013-05-21 20:34:00,
2013-05-21 16:36:00,68.7,26.1,30.01,NE,45,0.0,0.0,20,0.00,,---,0.63,VWS V14.00,2013-05-21 20:36:00,
2013-05-21 16:37:00,68.9,26.2,30.01,NE,45,0.0,0.0,20,0.00,,---,0.63,VWS V14.00,2013-05-21 20:37:00,
2013-05-21 16:38:00,68.9,26.2,30.01,NE,45,0.0,0.0,20,0.00,,---,0.63,VWS V14.00,2013-05-21 20:38:00,
2013-05-21 16:39:00,68.2,25.6,30.01,ESE,114,4.0,4.0,20,0.00,,---,0.63,VWS V14.00,2013-05-21 20:39:00,
2013-05-21 16:41:00,68.0,25.5,30.01,SE,133,0.0,0.0,20,0.00,,---,0.63,VWS V14.00,2013-05-21 20:41:00,
2013-05-21 16:43:00,68.0,25.5,30.01,SE,133,0.0,0.0,20,0.00,,---,0.63,VWS V14.00,2013-05-21 20:43:00,
2013-05-21 16:45:00,67.5,25.0,30.01,SE,132,0.0,0.0,20,0.00,,---,0.63,VWS V14.00,2013-05-21 20:45:00,
2013-05-21 16:46:00,67.5,27.3,30.01,SE,132,0.0,0.0,22,0.00,,---,0.63,VWS V14.00,2013-05-21 20:46:00,
2013-05-21 16:47:00,67.5,27.3,30.01,SE,132,0.0,0.0,22,0.00,,---,0.63,VWS V14.00,2013-05-21 20:47:00,
2013-05-21 16:48:00,67.3,27.2,30.01,SE,132,0.0,0.0,22,0.00,,---,0.63,VWS V14.00,2013-05-21 20:48:00,
2013-05-21 16:50:00,67.6,25.2,30.01,SE,133,0.0,0.0,20,0.00,,---,0.63,VWS V14.00,2013-05-21 20:50:00,
2013-05-21 16:51:00,67.8,25.3,30.01,SE,133,0.0,0.0,20,0.00,,---,0.63,VWS V14.00,2013-05-21 20:51:00,
2013-05-21 16:52:00,68.2,27.9,30.01,SE,133,0.0,0.0,22,0.00,,---,0.63,VWS V14.00,2013-05-21 20:52:00,
2013-05-21 16:53:00,68.5,25.9,30.01,SE,133,0.0,0.0,20,0.00,,---,0.63,VWS V14.00,2013-05-21 20:53:00,
2013-05-21 16:55:00,69.4,26.7,30.01,SE,132,0.0,0.0,20,0.00,,---,0.63,VWS V14.00,2013-05-21 20:55:00,
2013-05-21 16:56:00,69.4,26.7,30.01,SE,133,0.0,0.0,20,0.00,,---,0.63,VWS V14.00,2013-05-21 20:56:00,
2013-05-21 16:57:00,69.6,26.8,30.01,SE,133,0.0,0.0,20,0.00,,---,0.63,VWS V14.00,2013-05-21 20:57:00,
2013-05-21 16:58:00,69.4,22.8,30.01,ENE,67,0.0,0.0,17,0.00,,---,0.63,VWS V14.00,2013-05-21 20:58:00,
2013-05-21 17:01:00,69.3,26.5,30.01,ENE,67,0.0,0.0,20,0.00,,---,0.63,VWS V14.00,2013-05-21 21:01:00,
2013-05-21 17:02:00,69.3,26.5,30.01,ENE,67,0.0,0.0,20,0.00,,---,0.63,VWS V14.00,2013-05-21 21:02:00,
2013-05-21 17:03:00,69.1,26.4,30.01,ENE,67,0.0,0.0,20,0.00,,---,0.63,VWS V14.00,2013-05-21 21:03:00,
2013-05-21 17:04:00,69.1,26.4,30.01,ENE,67,0.0,0.0,20,0.00,,---,0.63,VWS V14.00,2013-05-21 21:04:00,
2013-05-21 17:06:00,68.2,25.6,30.01,ENE,67,0.0,0.0,20,0.00,,---,0.63,VWS V14.00,2013-05-21 21:06:00,
2013-05-21 17:07:00,67.8,25.3,30.01,ENE,66,0.0,0.0,20,0.00,,---,0.63,VWS V14.00,2013-05-21 21:07:00,
2013-05-21 17:08:00,67.3,24.9,30.01,NNE,33,0.0,0.0,20,0.00,,---,0.63,VWS V14.00,2013-05-21 21:08:00,
2013-05-21 17:10:00,66.9,26.9,30.01,NNE,19,3.4,3.4,22,0.00,,---,0.63,VWS V14.00,2013-05-21 21:10:00,
2013-05-21 17:11:00,66.9,26.9,30.01,NE,34,4.7,6.0,22,0.00,,---,0.63,VWS V14.00,2013-05-21 21:11:00,
2013-05-21 17:12:00,66.2,26.3,30.01,NE,34,3.4,4.7,22,0.00,,---,0.63,VWS V14.00,2013-05-21 21:12:00,
2013-05-21 17:13:00,65.5,27.8,30.01,NE,38,4.0,4.0,24,0.00,,---,0.63,VWS V14.00,2013-05-21 21:13:00,
2013-05-21 17:15:00,65.3,27.6,30.01,North,10,0.0,4.0,24,0.00,,---,0.63,VWS V14.00,2013-05-21 21:15:00,
2013-05-21 17:16:00,64.8,27.2,30.01,NNE,23,7.4,7.4,24,0.00,,---,0.63,VWS V14.00,2013-05-21 21:16:00,
2013-05-21 17:17:00,64.8,27.2,30.01,North,357,4.0,4.0,24,0.00,,---,0.63,VWS V14.00,2013-05-21 21:17:00,
2013-05-21 17:19:00,63.9,28.3,30.01,NNE,30,5.4,5.4,26,0.00,,---,0.63,VWS V14.00,2013-05-21 21:19:00,
2013-05-21 17:20:00,63.7,28.2,30.01,NNE,30,4.0,4.0,26,0.00,,---,0.63,VWS V14.00,2013-05-21 21:20:00,
2013-05-21 17:21:00,63.3,27.9,30.01,NNE,25,0.0,4.0,26,0.00,,---,0.63,VWS V14.00,2013-05-21 21:21:00,
2013-05-21 17:22:00,63.3,28.8,30.01,NNE,26,0.0,0.0,27,0.00,,---,0.63,VWS V14.00,2013-05-21 21:22:00,
2013-05-21 17:24:00,63.3,29.7,30.01,NE,38,0.0,4.7,28,0.00,,---,0.63,VWS V14.00,2013-05-21 21:24:00,
2013-05-21 17:25:00,63.3,27.9,30.01,NNE,16,0.0,4.0,26,0.00,,---,0.63,VWS V14.00,2013-05-21 21:25:00,
2013-05-21 17:26:00,63.0,27.6,30.01,NNE,23,4.0,4.7,26,0.00,,---,0.63,VWS V14.00,2013-05-21 21:26:00,
2013-05-21 17:27:00,63.0,27.6,30.01,NNE,33,6.0,6.0,26,0.00,,---,0.63,VWS V14.00,2013-05-21 21:27:00,
2013-05-21 17:30:00,62.2,27.0,30.01,NNE,12,0.0,4.7,26,0.00,,---,0.63,VWS V14.00,2013-05-21 21:30:00,
2013-05-21 17:31:00,61.7,26.5,30.01,NNE,30,5.4,7.4,26,0.00,,---,0.63,VWS V14.00,2013-05-21 21:31:00,
2013-05-21 17:32:00,61.7,26.5,30.01,NNE,19,0.0,5.4,26,0.00,,---,0.63,VWS V14.00,2013-05-21 21:32:00,
2013-05-21 17:35:00,61.2,28.7,30.01,NNE,31,0.0,3.4,29,0.00,,---,0.63,VWS V14.00,2013-05-21 21:35:00,
2013-05-21 17:37:00,61.2,29.5,30.01,NNE,31,0.0,0.0,30,0.00,,---,0.63,VWS V14.00,2013-05-21 21:37:00,
2013-05-21 17:40:00,61.0,30.9,30.01,NE,45,0.0,0.0,32,0.00,,---,0.63,VWS V14.00,2013-05-21 21:40:00,
2013-05-21 17:41:00,61.0,31.7,30.01,NE,46,0.0,0.0,33,0.00,,---,0.63,VWS V14.00,2013-05-21 21:41:00,
2013-05-21 17:42:00,61.0,31.7,30.01,NE,45,0.0,0.0,33,0.00,,---,0.63,VWS V14.00,2013-05-21 21:42:00,
2013-05-21 17:43:00,61.0,32.4,30.01,NE,38,0.0,0.0,34,0.00,,---,0.63,VWS V14.00,2013-05-21 21:43:00,
2013-05-21 17:45:00,60.8,31.5,30.01,NNE,33,0.0,0.0,33,0.00,,---,0.63,VWS V14.00,2013-05-21 21:45:00,
2013-05-21 17:46:00,60.6,32.1,30.01,NNE,32,0.0,0.0,34,0.00,,---,0.63,VWS V14.00,2013-05-21 21:46:00,
2013-05-21 17:47:00,60.6,32.1,30.01,NNE,32,0.0,0.0,34,0.00,,---,0.63,VWS V14.00,2013-05-21 21:47:00,
2013-05-21 17:48:00,60.6,32.1,30.01,NE,34,0.0,0.0,34,0.00,,---,0.63,VWS V14.00,2013-05-21 21:48:00,
2013-05-21 17:50:00,60.1,31.6,30.01,NE,56,0.0,0.0,34,0.00,,---,0.63,VWS V14.00,2013-05-21 21:50:00,
2013-05-21 17:51:00,59.9,31.5,30.01,NE,56,0.0,0.0,34,0.00,,---,0.63,VWS V14.00,2013-05-21 21:51:00,
2013-05-21 17:52:00,59.7,32.0,30.01,NE,56,0.0,0.0,35,0.00,,---,0.63,VWS V14.00,2013-05-21 21:52:00,
2013-05-21 17:53:00,59.7,32.0,30.04,NE,45,0.0,0.0,35,0.00,,---,0.63,VWS V14.00,2013-05-21 21:53:00,
2013-05-21 17:55:00,59.4,32.4,30.04,NE,37,4.0,4.0,36,0.00,,---,0.63,VWS V14.00,2013-05-21 21:55:00,
2013-05-21 17:56:00,59.4,32.4,30.04,NE,35,0.0,4.0,36,0.00,,---,0.63,VWS V14.00,2013-05-21 21:56:00,
2013-05-21 17:57:00,59.2,32.3,30.04,NE,35,0.0,0.0,36,0.00,,---,0.63,VWS V14.00,2013-05-21 21:57:00,
2013-05-21 17:58:00,59.2,32.3,30.04,NE,34,0.0,0.0,36,0.00,,---,0.63,VWS V14.00,2013-05-21 21:58:00,
2013-05-21 18:00:00,59.0,33.5,30.04,NE,34,0.0,0.0,38,0.00,,---,0.63,VWS V14.00,2013-05-21 22:00:00,
2013-05-21 18:01:00,58.8,33.9,30.04,NE,34,0.0,0.0,39,0.00,,---,0.63,VWS V14.00,2013-05-21 22:01:00,
2013-05-21 18:02:00,58.6,33.8,30.04,NE,34,0.0,0.0,39,0.00,,---,0.63,VWS V14.00,2013-05-21 22:02:00,
2013-05-21 18:03:00,58.6,33.8,30.04,NE,34,0.0,0.0,39,0.00,,---,0.63,VWS V14.00,2013-05-21 22:03:00,
2013-05-21 18:05:00,58.5,34.2,30.04,NNE,32,0.0,0.0,40,0.00,,---,0.63,VWS V14.00,2013-05-21 22:05:00,
2013-05-21 18:07:00,58.5,34.2,30.04,NNE,32,0.0,0.0,40,0.00,,---,0.63,VWS V14.00,2013-05-21 22:07:00,
2013-05-21 18:08:00,58.5,34.2,30.04,NNE,32,0.0,0.0,40,0.00,,---,0.63,VWS V14.00,2013-05-21 22:08:00,
2013-05-21 18:10:00,58.1,35.2,30.04,NNE,32,0.0,0.0,42,0.00,,---,0.63,VWS V14.00,2013-05-21 22:10:00,
2013-05-21 18:12:00,58.1,35.7,30.04,NNE,31,3.4,3.4,43,0.00,,---,0.63,VWS V14.00,2013-05-21 22:12:00,
2013-05-21 18:13:00,58.1,36.3,30.04,NNE,31,0.0,0.0,44,0.00,,---,0.63,VWS V14.00,2013-05-21 22:13:00,
2013-05-21 18:16:00,58.1,36.3,30.04,NNE,31,0.0,0.0,44,0.00,,---,0.63,VWS V14.00,2013-05-21 22:16:00,
2013-05-21 18:17:00,58.1,36.3,30.04,NNE,31,0.0,0.0,44,0.00,,---,0.63,VWS V14.00,2013-05-21 22:17:00,
2013-05-21 18:18:00,57.9,36.7,30.04,NNE,21,0.0,0.0,45,0.00,,---,0.63,VWS V14.00,2013-05-21 22:18:00,
2013-05-21 18:19:00,57.9,36.7,30.04,NNE,17,0.0,3.4,45,0.00,,---,0.63,VWS V14.00,2013-05-21 22:19:00,
2013-05-21 18:21:00,57.9,36.7,30.04,NNE,22,0.0,0.0,45,0.00,,---,0.63,VWS V14.00,2013-05-21 22:21:00,
2013-05-21 18:22:00,57.7,36.6,30.04,NNE,24,3.4,3.4,45,0.00,,---,0.63,VWS V14.00,2013-05-21 22:22:00,
2013-05-21 18:23:00,57.6,36.4,30.04,NNE,24,0.0,0.0,45,0.00,,---,0.63,VWS V14.00,2013-05-21 22:23:00,
2013-05-21 18:24:00,57.6,36.4,30.04,NNE,24,0.0,0.0,45,0.00,,---,0.63,VWS V14.00,2013-05-21 22:24:00,
2013-05-21 18:26:00,57.4,36.2,30.04,NNE,26,0.0,0.0,45,0.00,,---,0.63,VWS V14.00,2013-05-21 22:26:00,
2013-05-21 18:27:00,57.4,36.2,30.04,NNE,27,0.0,0.0,45,0.00,,---,0.63,VWS V14.00,2013-05-21 22:27:00,
2013-05-21 18:28:00,57.4,36.2,30.04,NNE,27,0.0,0.0,45,0.00,,---,0.63,VWS V14.00,2013-05-21 22:28:00,
2013-05-21 18:29:00,57.4,36.2,30.04,NNE,26,0.0,0.0,45,0.00,,---,0.63,VWS V14.00,2013-05-21 22:29:00,
2013-05-21 18:31:00,57.2,36.6,30.04,NNE,27,0.0,0.0,46,0.00,,---,0.63,VWS V14.00,2013-05-21 22:31:00,
2013-05-21 18:32:00,57.2,36.6,30.04,NNE,26,0.0,0.0,46,0.00,,---,0.63,VWS V14.00,2013-05-21 22:32:00,
2013-05-21 18:33:00,57.0,36.5,30.04,NNE,27,0.0,0.0,46,0.00,,---,0.63,VWS V14.00,2013-05-21 22:33:00,
2013-05-21 18:34:00,57.0,36.5,30.04,NNE,26,0.0,0.0,46,0.00,,---,0.63,VWS V14.00,2013-05-21 22:34:00,
2013-05-21 18:37:00,57.0,37.5,30.04,NNE,27,0.0,0.0,48,0.00,,---,0.63,VWS V14.00,2013-05-21 22:37:00,
2013-05-21 18:38:00,57.2,37.7,30.01,NNE,26,0.0,0.0,48,0.00,,---,0.63,VWS V14.00,2013-05-21 22:38:00,
2013-05-21 18:39:00,57.0,38.1,30.01,NNE,27,0.0,0.0,49,0.00,,---,0.63,VWS V14.00,2013-05-21 22:39:00,
2013-05-21 18:42:00,56.8,38.4,30.01,NNE,31,0.0,0.0,50,0.00,,---,0.63,VWS V14.00,2013-05-21 22:42:00,
2013-05-21 18:43:00,56.7,38.8,30.01,NNE,31,4.7,4.7,51,0.00,,---,0.63,VWS V14.00,2013-05-21 22:43:00,
2013-05-21 18:44:00,56.7,38.8,30.01,NNE,31,4.7,4.7,51,0.00,,---,0.63,VWS V14.00,2013-05-21 22:44:00,
2013-05-21 18:47:00,56.7,41.2,30.01,NNE,33,0.0,0.0,56,0.00,,---,0.63,VWS V14.00,2013-05-21 22:47:00,
2013-05-21 18:48:00,56.7,42.5,30.01,NE,37,0.0,0.0,59,0.04,,---,0.67,VWS V14.00,2013-05-21 22:48:00,
2013-05-21 18:49:00,56.7,43.0,30.01,NE,37,0.0,0.0,60,0.04,,---,0.67,VWS V14.00,2013-05-21 22:49:00,
2013-05-21 18:50:00,56.5,43.2,30.01,NE,37,0.0,0.0,61,0.04,,---,0.67,VWS V14.00,2013-05-21 22:50:00,
2013-05-21 18:52:00,56.5,43.6,30.01,NE,37,0.0,0.0,62,0.04,,---,0.67,VWS V14.00,2013-05-21 22:52:00,
2013-05-21 18:53:00,56.3,43.9,30.04,NE,37,0.0,0.0,63,0.04,,---,0.67,VWS V14.00,2013-05-21 22:53:00,
2013-05-21 18:54:00,56.3,43.9,30.04,NE,37,0.0,0.0,63,0.04,,---,0.67,VWS V14.00,2013-05-21 22:54:00,
2013-05-21 18:55:00,56.3,43.9,30.04,NE,37,0.0,0.0,63,0.04,,---,0.67,VWS V14.00,2013-05-21 22:55:00,
2013-05-21 18:57:00,56.3,44.7,30.04,NE,37,0.0,0.0,65,0.04,,---,0.67,VWS V14.00,2013-05-21 22:57:00,
2013-05-21 18:58:00,56.3,44.7,30.04,NE,37,0.0,0.0,65,0.04,,---,0.67,VWS V14.00,2013-05-21 22:58:00,
2013-05-21 18:59:00,56.3,44.7,30.04,NE,37,0.0,0.0,65,0.04,,---,0.67,VWS V14.00,2013-05-21 22:59:00,
2013-05-21 19:00:00,56.3,44.7,30.04,NE,37,0.0,0.0,65,0.04,,---,0.67,VWS V14.00,2013-05-21 23:00:00,
2013-05-21 19:03:00,56.1,44.9,30.04,NE,37,0.0,0.0,66,0.04,,---,0.67,VWS V14.00,2013-05-21 23:03:00,
2013-05-21 19:04:00,56.1,44.9,30.04,NE,37,0.0,0.0,66,0.04,,---,0.67,VWS V14.00,2013-05-21 23:04:00,
2013-05-21 19:05:00,56.1,45.3,30.04,NE,37,0.0,0.0,67,0.04,,---,0.67,VWS V14.00,2013-05-21 23:05:00,
2013-05-21 19:08:00,56.1,45.3,30.04,NE,35,0.0,0.0,67,0.04,,---,0.67,VWS V14.00,2013-05-21 23:08:00,
2013-05-21 19:09:00,56.1,45.7,30.04,NE,35,0.0,0.0,68,0.04,,---,0.67,VWS V14.00,2013-05-21 23:09:00,
2013-05-21 19:11:00,56.1,45.7,30.04,NNE,28,0.0,0.0,68,0.04,,---,0.67,VWS V14.00,2013-05-21 23:11:00,
2013-05-21 19:13:00,56.1,45.7,30.04,NNE,18,0.0,0.0,68,0.04,,---,0.67,VWS V14.00,2013-05-21 23:13:00,
2013-05-21 19:14:00,55.9,45.9,30.04,NNE,18,0.0,0.0,69,0.04,,---,0.67,VWS V14.00,2013-05-21 23:14:00,
2013-05-21 19:16:00,55.9,45.9,30.04,NNE,18,0.0,0.0,69,0.04,,---,0.67,VWS V14.00,2013-05-21 23:16:00,
2013-05-21 19:18:00,56.1,46.1,30.04,NNE,18,3.4,3.4,69,0.04,,---,0.67,VWS V14.00,2013-05-21 23:18:00,
2013-05-21 19:19:00,55.9,45.9,30.04,NNE,18,0.0,3.4,69,0.04,,---,0.67,VWS V14.00,2013-05-21 23:19:00,
2013-05-21 19:21:00,55.9,45.9,30.04,NNE,18,0.0,0.0,69,0.04,,---,0.67,VWS V14.00,2013-05-21 23:21:00,
2013-05-21 19:24:00,55.9,45.9,30.04,NNE,18,0.0,0.0,69,0.04,,---,0.67,VWS V14.00,2013-05-21 23:24:00,
2013-05-21 19:25:00,55.9,45.9,30.04,North,9,0.0,4.0,69,0.04,,---,0.67,VWS V14.00,2013-05-21 23:25:00,
2013-05-21 19:26:00,55.8,45.8,30.04,North,9,0.0,0.0,69,0.04,,---,0.67,VWS V14.00,2013-05-21 23:26:00,
2013-05-21 19:29:00,55.8,45.8,30.04,North,9,0.0,0.0,69,0.04,,---,0.67,VWS V14.00,2013-05-21 23:29:00,
2013-05-21 19:30:00,55.8,45.8,30.04,North,9,3.4,3.4,69,0.04,,---,0.67,VWS V14.00,2013-05-21 23:30:00,
2013-05-21 19:31:00,55.8,46.1,30.04,North,9,0.0,0.0,70,0.04,,---,0.67,VWS V14.00,2013-05-21 23:31:00,
2013-05-21 19:34:00,55.6,46.0,30.04,North,9,0.0,0.0,70,0.04,,---,0.67,VWS V14.00,2013-05-21 23:34:00,
2013-05-21 19:35:00,55.6,46.0,30.04,North,9,0.0,0.0,70,0.04,,---,0.67,VWS V14.00,2013-05-21 23:35:00,
2013-05-21 19:36:00,55.6,46.0,30.04,North,9,0.0,0.0,70,0.04,,---,0.67,VWS V14.00,2013-05-21 23:36:00,
2013-05-21 19:39:00,55.6,46.0,30.04,NNE,21,0.0,0.0,70,0.04,,---,0.67,VWS V14.00,2013-05-21 23:39:00,
2013-05-21 19:40:00,55.4,45.8,30.04,NNE,21,0.0,0.0,70,0.04,,---,0.67,VWS V14.00,2013-05-21 23:40:00,
2013-05-21 19:41:00,55.4,46.2,30.04,NNE,23,0.0,4.0,71,0.04,,---,0.67,VWS V14.00,2013-05-21 23:41:00,
2013-05-21 19:44:00,55.2,46.0,30.04,NNE,23,0.0,0.0,71,0.04,,---,0.67,VWS V14.00,2013-05-21 23:44:00,
2013-05-21 19:45:00,55.2,46.0,30.04,NNE,23,0.0,0.0,71,0.04,,---,0.67,VWS V14.00,2013-05-21 23:45:00,
2013-05-21 19:46:00,55.4,46.2,30.04,NNE,23,0.0,0.0,71,0.04,,---,0.67,VWS V14.00,2013-05-21 23:46:00,
2013-05-21 19:49:00,55.2,46.4,30.04,NNE,23,0.0,0.0,72,0.00,,---,0.67,VWS V14.00,2013-05-21 23:49:00,
2013-05-21 19:50:00,55.2,46.4,30.04,NNE,23,0.0,0.0,72,0.00,,---,0.67,VWS V14.00,2013-05-21 23:50:00,
2013-05-21 19:52:00,55.2,46.4,30.04,North,7,4.0,4.0,72,0.00,,---,0.67,VWS V14.00,2013-05-21 23:52:00,
2013-05-21 19:54:00,55.4,46.5,30.04,North,357,4.7,5.4,72,0.00,,---,0.67,VWS V14.00,2013-05-21 23:54:00,
2013-05-21 19:55:00,55.2,46.7,30.04,North,357,0.0,4.7,73,0.00,,---,0.67,VWS V14.00,2013-05-21 23:55:00,
2013-05-21 19:56:00,55.2,46.7,30.04,North,357,4.0,4.7,73,0.00,,---,0.67,VWS V14.00,2013-05-21 23:56:00,
2013-05-21 19:57:00,55.2,46.7,30.04,North,8,0.0,0.0,73,0.00,,---,0.67,VWS V14.00,2013-05-21 23:57:00,
2013-05-21 19:59:00,55.2,46.7,30.04,North,8,0.0,0.0,73,0.00,,---,0.67,VWS V14.00,2013-05-21 23:59:00,
2013-05-21 20:00:00,55.2,46.7,30.04,North,9,0.0,0.0,73,0.00,,---,0.67,VWS V14.00,2013-05-22 00:00:00,
2013-05-21 20:01:00,55.2,46.7,30.04,North,9,0.0,0.0,73,0.00,,---,0.67,VWS V14.00,2013-05-22 00:01:00,
2013-05-21 20:02:00,55.0,46.5,30.04,North,9,0.0,0.0,73,0.00,,---,0.67,VWS V14.00,2013-05-22 00:02:00,
2013-05-21 20:04:00,55.0,46.5,30.04,North,9,0.0,0.0,73,0.00,,---,0.67,VWS V14.00,2013-05-22 00:04:00,
2013-05-21 20:05:00,55.0,46.5,30.04,North,9,0.0,0.0,73,0.00,,---,0.67,VWS V14.00,2013-05-22 00:05:00,
2013-05-21 20:06:00,55.0,46.5,30.04,North,9,0.0,0.0,73,0.00,,---,0.67,VWS V14.00,2013-05-22 00:06:00,
2013-05-21 20:07:00,55.0,46.5,30.04,North,9,0.0,0.0,73,0.00,,---,0.67,VWS V14.00,2013-05-22 00:07:00,
2013-05-21 20:09:00,55.0,46.9,30.04,North,5,3.4,3.4,74,0.00,,---,0.67,VWS V14.00,2013-05-22 00:09:00,
2013-05-21 20:11:00,55.0,46.9,30.04,North,5,0.0,4.0,74,0.00,,---,0.67,VWS V14.00,2013-05-22 00:11:00,
2013-05-21 20:12:00,55.0,46.9,30.04,North,5,0.0,0.0,74,0.00,,---,0.67,VWS V14.00,2013-05-22 00:12:00,
2013-05-21 20:15:00,55.0,46.9,30.04,North,5,0.0,3.4,74,0.00,,---,0.67,VWS V14.00,2013-05-22 00:15:00,
2013-05-21 20:16:00,55.0,46.9,30.04,North,5,0.0,0.0,74,0.00,,---,0.67,VWS V14.00,2013-05-22 00:16:00,
2013-05-21 20:17:00,55.0,46.9,30.04,North,5,0.0,0.0,74,0.00,,---,0.67,VWS V14.00,2013-05-22 00:17:00,
2013-05-21 20:20:00,55.0,46.9,30.04,North,5,0.0,3.4,74,0.00,,---,0.67,VWS V14.00,2013-05-22 00:20:00,
2013-05-21 20:21:00,55.0,46.9,30.04,North,5,0.0,0.0,74,0.00,,---,0.67,VWS V14.00,2013-05-22 00:21:00,
2013-05-21 20:22:00,55.0,46.9,30.04,North,5,0.0,0.0,74,0.00,,---,0.67,VWS V14.00,2013-05-22 00:22:00,
2013-05-21 20:25:00,55.0,46.9,30.04,North,5,0.0,0.0,74,0.00,,---,0.67,VWS V14.00,2013-05-22 00:25:00,
2013-05-21 20:26:00,55.0,47.3,30.04,North,5,0.0,0.0,75,0.00,,---,0.67,VWS V14.00,2013-05-22 00:26:00,
2013-05-21 20:27:00,55.0,47.3,30.04,North,5,3.4,3.4,75,0.00,,---,0.67,VWS V14.00,2013-05-22 00:27:00,
2013-05-21 20:30:00,54.9,47.1,30.04,North,3,4.0,4.7,75,0.00,,---,0.67,VWS V14.00,2013-05-22 00:30:00,
2013-05-21 20:31:00,54.9,47.1,30.04,North,3,0.0,0.0,75,0.00,,---,0.67,VWS V14.00,2013-05-22 00:31:00,
2013-05-21 20:32:00,54.9,47.1,30.04,North,3,0.0,4.0,75,0.00,,---,0.67,VWS V14.00,2013-05-22 00:32:00,
2013-05-21 20:35:00,54.7,46.9,30.04,North,3,0.0,0.0,75,0.00,,---,0.67,VWS V14.00,2013-05-22 00:35:00,
2013-05-21 20:36:00,54.7,46.9,30.04,North,3,0.0,0.0,75,0.00,,---,0.67,VWS V14.00,2013-05-22 00:36:00,
2013-05-21 20:37:00,54.7,46.9,30.04,North,3,0.0,0.0,75,0.00,,---,0.67,VWS V14.00,2013-05-22 00:37:00,
2013-05-21 20:38:00,54.7,46.9,30.04,North,3,0.0,0.0,75,0.00,,---,0.67,VWS V14.00,2013-05-22 00:38:00,
2013-05-21 20:40:00,54.7,46.9,30.04,North,3,0.0,0.0,75,0.00,,---,0.67,VWS V14.00,2013-05-22 00:40:00,
2013-05-21 20:41:00,54.7,46.9,30.04,North,3,0.0,0.0,75,0.00,,---,0.67,VWS V14.00,2013-05-22 00:41:00,
2013-05-21 20:42:00,54.7,46.9,30.04,North,3,0.0,0.0,75,0.00,,---,0.67,VWS V14.00,2013-05-22 00:42:00,
2013-05-21 20:43:00,54.7,46.9,30.04,North,3,0.0,0.0,75,0.00,,---,0.67,VWS V14.00,2013-05-22 00:43:00,
2013-05-21 20:45:00,54.7,46.9,30.04,North,3,0.0,0.0,75,0.00,,---,0.67,VWS V14.00,2013-05-22 00:45:00,
2013-05-21 20:47:00,54.7,46.9,30.04,North,3,0.0,0.0,75,0.00,,---,0.67,VWS V14.00,2013-05-22 00:47:00,
2013-05-21 20:48:00,54.7,46.9,30.04,North,3,0.0,0.0,75,0.00,,---,0.67,VWS V14.00,2013-05-22 00:48:00,
2013-05-21 20:50:00,54.7,46.9,30.04,North,3,0.0,0.0,75,0.00,,---,0.67,VWS V14.00,2013-05-22 00:50:00,
2013-05-21 20:52:00,54.7,46.9,30.04,North,3,0.0,0.0,75,0.00,,---,0.67,VWS V14.00,2013-05-22 00:52:00,
2013-05-21 20:53:00,54.7,47.3,30.04,North,3,0.0,0.0,76,0.00,,---,0.67,VWS V14.00,2013-05-22 00:53:00,
2013-05-21 20:55:00,54.7,47.3,30.04,North,3,0.0,0.0,76,0.00,,---,0.67,VWS V14.00,2013-05-22 00:55:00,
2013-05-21 20:57:00,54.7,47.3,30.04,North,3,0.0,0.0,76,0.00,,---,0.67,VWS V14.00,2013-05-22 00:57:00,
2013-05-21 20:58:00,54.7,47.3,30.04,North,3,0.0,0.0,76,0.00,,---,0.67,VWS V14.00,2013-05-22 00:58:00,
2013-05-21 21:00:00,54.7,47.3,30.04,North,3,0.0,0.0,76,0.00,,---,0.67,VWS V14.00,2013-05-22 01:00:00,
2013-05-21 21:02:00,54.9,47.8,30.04,North,3,0.0,0.0,77,0.00,,---,0.67,VWS V14.00,2013-05-22 01:02:00,
2013-05-21 21:03:00,54.9,47.8,30.04,North,3,0.0,0.0,77,0.00,,---,0.67,VWS V14.00,2013-05-22 01:03:00,
2013-05-21 21:06:00,54.7,47.6,30.04,North,3,0.0,0.0,77,0.00,,---,0.67,VWS V14.00,2013-05-22 01:06:00,
2013-05-21 21:08:00,54.5,47.5,30.04,North,3,0.0,0.0,77,0.00,,---,0.67,VWS V14.00,2013-05-22 01:08:00,
2013-05-21 21:11:00,54.5,47.5,30.04,North,3,0.0,0.0,77,0.00,,---,0.67,VWS V14.00,2013-05-22 01:11:00,
2013-05-21 21:13:00,54.3,47.3,30.04,North,3,0.0,0.0,77,0.00,,---,0.67,VWS V14.00,2013-05-22 01:13:00,
2013-05-21 21:16:00,54.3,47.3,30.04,North,3,0.0,0.0,77,0.00,,---,0.67,VWS V14.00,2013-05-22 01:16:00,
2013-05-21 21:18:00,54.3,47.3,30.04,North,3,0.0,0.0,77,0.00,,---,0.67,VWS V14.00,2013-05-22 01:18:00,
2013-05-21 21:19:00,54.3,47.3,30.04,North,3,0.0,0.0,77,0.00,,---,0.67,VWS V14.00,2013-05-22 01:19:00,
2013-05-21 21:21:00,54.3,47.3,30.04,North,3,0.0,0.0,77,0.00,,---,0.67,VWS V14.00,2013-05-22 01:21:00,
2013-05-21 21:23:00,54.3,47.3,30.04,North,3,0.0,0.0,77,0.00,,---,0.67,VWS V14.00,2013-05-22 01:23:00,
2013-05-21 21:24:00,54.3,47.3,30.04,North,3,0.0,0.0,77,0.00,,---,0.67,VWS V14.00,2013-05-22 01:24:00,
2013-05-21 21:26:00,54.3,47.6,30.04,North,3,0.0,0.0,78,0.00,,---,0.67,VWS V14.00,2013-05-22 01:26:00,
2013-05-21 21:28:00,54.3,47.6,30.04,North,3,0.0,0.0,78,0.00,,---,0.67,VWS V14.00,2013-05-22 01:28:00,
2013-05-21 21:29:00,54.3,47.6,30.04,North,3,0.0,0.0,78,0.00,,---,0.67,VWS V14.00,2013-05-22 01:29:00,
2013-05-21 21:31:00,54.3,47.6,30.04,North,3,0.0,0.0,78,0.00,,---,0.67,VWS V14.00,2013-05-22 01:31:00,
2013-05-21 21:33:00,54.3,47.6,30.04,North,3,0.0,0.0,78,0.00,,---,0.67,VWS V14.00,2013-05-22 01:33:00,
2013-05-21 21:34:00,54.3,47.6,30.04,North,3,0.0,0.0,78,0.00,,---,0.67,VWS V14.00,2013-05-22 01:34:00,
2013-05-21 21:36:00,54.3,48.0,30.04,North,3,0.0,0.0,79,0.00,,---,0.67,VWS V14.00,2013-05-22 01:36:00,
2013-05-21 21:38:00,54.3,48.0,30.04,North,3,0.0,0.0,79,0.00,,---,0.67,VWS V14.00,2013-05-22 01:38:00,
2013-05-21 21:39:00,54.3,48.0,30.04,North,3,0.0,0.0,79,0.00,,---,0.67,VWS V14.00,2013-05-22 01:39:00,
2013-05-21 21:41:00,54.1,47.8,30.04,North,3,0.0,0.0,79,0.00,,---,0.67,VWS V14.00,2013-05-22 01:41:00,
2013-05-21 21:44:00,54.1,47.8,30.04,North,3,0.0,0.0,79,0.00,,---,0.67,VWS V14.00,2013-05-22 01:44:00,
2013-05-21 21:46:00,54.0,47.6,30.04,North,3,0.0,0.0,79,0.00,,---,0.67,VWS V14.00,2013-05-22 01:46:00,
2013-05-21 21:49:00,54.0,47.6,30.04,North,3,0.0,0.0,79,0.00,,---,0.67,VWS V14.00,2013-05-22 01:49:00,
2013-05-21 21:50:00,54.0,47.6,30.04,North,3,4.0,4.0,79,0.00,,---,0.67,VWS V14.00,2013-05-22 01:50:00,
2013-05-21 21:51:00,54.0,47.9,30.04,North,3,0.0,0.0,80,0.00,,---,0.67,VWS V14.00,2013-05-22 01:51:00,
2013-05-21 21:53:00,53.8,47.8,30.04,North,3,0.0,3.4,80,0.00,,---,0.67,VWS V14.00,2013-05-22 01:53:00,
2013-05-21 21:54:00,53.8,47.8,30.04,North,3,0.0,0.0,80,0.00,,---,0.67,VWS V14.00,2013-05-22 01:54:00,
2013-05-21 21:55:00,53.8,47.8,30.04,North,3,0.0,0.0,80,0.00,,---,0.67,VWS V14.00,2013-05-22 01:55:00,
2013-05-21 21:57:00,53.6,47.6,30.04,North,3,0.0,0.0,80,0.00,,---,0.67,VWS V14.00,2013-05-22 01:57:00,
2013-05-21 21:59:00,53.6,47.6,30.04,North,3,0.0,0.0,80,0.00,,---,0.67,VWS V14.00,2013-05-22 01:59:00,
2013-05-21 22:00:00,53.4,47.4,30.04,North,3,4.0,4.0,80,0.00,,---,0.67,VWS V14.00,2013-05-22 02:00:00,
2013-05-21 22:02:00,53.4,47.4,30.04,North,3,3.4,3.4,80,0.00,,---,0.67,VWS V14.00,2013-05-22 02:02:00,
2013-05-21 22:04:00,53.4,47.7,30.04,North,3,5.4,5.4,81,0.00,,---,0.67,VWS V14.00,2013-05-22 02:04:00,
2013-05-21 22:05:00,53.2,47.6,30.04,North,3,3.4,5.4,81,0.00,,---,0.67,VWS V14.00,2013-05-22 02:05:00,
2013-05-21 22:07:00,53.2,47.6,30.04,North,3,3.4,4.7,81,0.00,,---,0.67,VWS V14.00,2013-05-22 02:07:00,
2013-05-21 22:09:00,53.1,47.4,30.04,North,3,0.0,0.0,81,0.00,,---,0.67,VWS V14.00,2013-05-22 02:09:00,
2013-05-21 22:10:00,53.1,47.4,30.04,North,3,0.0,0.0,81,0.00,,---,0.67,VWS V14.00,2013-05-22 02:10:00,
2013-05-21 22:12:00,53.1,47.4,30.04,North,3,0.0,0.0,81,0.00,,---,0.67,VWS V14.00,2013-05-22 02:12:00,
2013-05-21 22:14:00,53.1,47.4,30.04,North,3,0.0,0.0,81,0.00,,---,0.67,VWS V14.00,2013-05-22 02:14:00,
2013-05-21 22:15:00,53.1,47.4,30.04,North,3,0.0,0.0,81,0.00,,---,0.67,VWS V14.00,2013-05-22 02:15:00,
2013-05-21 22:17:00,52.9,47.2,30.04,North,3,0.0,3.4,81,0.00,,---,0.67,VWS V14.00,2013-05-22 02:17:00,
2013-05-21 22:19:00,52.7,47.0,30.04,North,0,0.0,0.0,81,0.00,,---,0.67,VWS V14.00,2013-05-22 02:19:00,
2013-05-21 22:20:00,52.7,47.0,30.04,North,0,0.0,0.0,81,0.00,,---,0.67,VWS V14.00,2013-05-22 02:20:00,
2013-05-21 22:23:00,52.7,47.0,30.04,North,0,0.0,0.0,81,0.00,,---,0.67,VWS V14.00,2013-05-22 02:23:00,
2013-05-21 22:25:00,52.5,47.2,30.04,North,6,0.0,0.0,82,0.00,,---,0.67,VWS V14.00,2013-05-22 02:25:00,
2013-05-21 22:28:00,52.3,47.0,30.04,North,3,3.4,4.0,82,0.00,,---,0.67,VWS V14.00,2013-05-22 02:28:00,
2013-05-21 22:30:00,52.2,46.8,30.04,North,2,0.0,0.0,82,0.00,,---,0.67,VWS V14.00,2013-05-22 02:30:00,
2013-05-21 22:31:00,52.2,46.5,30.04,North,2,0.0,0.0,81,0.00,,---,0.67,VWS V14.00,2013-05-22 02:31:00,
2013-05-21 22:33:00,52.2,46.5,30.04,NNW,330,4.0,4.0,81,0.00,,---,0.67,VWS V14.00,2013-05-22 02:33:00,
2013-05-21 22:35:00,52.2,46.8,30.04,North,353,0.0,0.0,82,0.00,,---,0.67,VWS V14.00,2013-05-22 02:35:00,
2013-05-21 22:36:00,52.0,46.7,30.04,NNE,24,3.4,4.0,82,0.00,,---,0.67,VWS V14.00,2013-05-22 02:36:00,
2013-05-21 22:38:00,52.0,46.7,30.04,NNE,24,0.0,0.0,82,0.00,,---,0.67,VWS V14.00,2013-05-22 02:38:00,
2013-05-21 22:40:00,52.0,46.7,30.04,NNE,24,0.0,0.0,82,0.00,,---,0.67,VWS V14.00,2013-05-22 02:40:00,
2013-05-21 22:41:00,51.8,46.5,30.04,NNE,24,0.0,0.0,82,0.00,,---,0.67,VWS V14.00,2013-05-22 02:41:00,
2013-05-21 22:43:00,51.8,46.5,30.04,NNE,24,0.0,0.0,82,0.00,,---,0.67,VWS V14.00,2013-05-22 02:43:00,
2013-05-21 22:45:00,51.8,46.5,30.04,NNE,24,0.0,0.0,82,0.00,,---,0.67,VWS V14.00,2013-05-22 02:45:00,
2013-05-21 22:46:00,51.8,46.5,30.04,NNE,24,0.0,0.0,82,0.00,,---,0.67,VWS V14.00,2013-05-22 02:46:00,
2013-05-21 22:48:00,51.6,46.3,30.04,NNE,24,0.0,0.0,82,0.00,,---,0.67,VWS V14.00,2013-05-22 02:48:00,
2013-05-21 22:50:00,51.6,46.3,30.04,NNE,24,0.0,0.0,82,0.00,,---,0.67,VWS V14.00,2013-05-22 02:50:00,
2013-05-21 22:51:00,51.6,46.3,30.04,NNE,24,0.0,0.0,82,0.00,,---,0.67,VWS V14.00,2013-05-22 02:51:00,
2013-05-21 22:53:00,51.6,46.3,30.04,NNE,24,0.0,0.0,82,0.00,,---,0.67,VWS V14.00,2013-05-22 02:53:00,
2013-05-21 22:55:00,51.4,46.1,30.04,NNE,24,0.0,0.0,82,0.00,,---,0.67,VWS V14.00,2013-05-22 02:55:00,
2013-05-21 22:56:00,51.4,46.1,30.04,NNE,24,0.0,0.0,82,0.00,,---,0.67,VWS V14.00,2013-05-22 02:56:00,
2013-05-21 22:58:00,51.4,46.1,30.04,NNE,24,0.0,0.0,82,0.00,,---,0.67,VWS V14.00,2013-05-22 02:58:00,
2013-05-21 23:00:00,51.3,46.0,30.04,NNE,24,0.0,0.0,82,0.00,,---,0.67,VWS V14.00,2013-05-22 03:00:00,
2013-05-21 23:01:00,51.3,46.0,30.04,NNE,24,0.0,0.0,82,0.00,,---,0.67,VWS V14.00,2013-05-22 03:01:00,
2013-05-21 23:03:00,51.3,46.0,30.04,NNE,24,0.0,0.0,82,0.00,,---,0.67,VWS V14.00,2013-05-22 03:03:00,
2013-05-21 23:05:00,51.3,46.0,30.04,NNE,24,0.0,0.0,82,0.00,,---,0.67,VWS V14.00,2013-05-22 03:05:00,
2013-05-21 23:06:00,51.1,45.8,30.04,NNE,24,0.0,0.0,82,0.00,,---,0.67,VWS V14.00,2013-05-22 03:06:00,
2013-05-21 23:07:00,51.1,45.8,30.04,NNE,24,0.0,0.0,82,0.00,,---,0.67,VWS V14.00,2013-05-22 03:07:00,
2013-05-21 23:09:00,51.1,45.8,30.04,NNE,24,0.0,0.0,82,0.00,,---,0.67,VWS V14.00,2013-05-22 03:09:00,
2013-05-21 23:10:00,50.9,45.6,30.04,NNE,24,0.0,0.0,82,0.00,,---,0.67,VWS V14.00,2013-05-22 03:10:00,
2013-05-21 23:12:00,50.7,45.4,30.04,NNE,24,0.0,0.0,82,0.00,,---,0.67,VWS V14.00,2013-05-22 03:12:00,
2013-05-21 23:14:00,50.7,45.4,30.04,NNE,24,0.0,0.0,82,0.00,,---,0.67,VWS V14.00,2013-05-22 03:14:00,
2013-05-21 23:15:00,50.7,45.4,30.04,NNE,24,0.0,0.0,82,0.00,,---,0.67,VWS V14.00,2013-05-22 03:15:00,
2013-05-21 23:17:00,50.7,45.4,30.04,NNE,24,0.0,0.0,82,0.00,,---,0.67,VWS V14.00,2013-05-22 03:17:00,
2013-05-21 23:19:00,50.5,45.3,30.04,North,357,0.0,0.0,82,0.00,,---,0.67,VWS V14.00,2013-05-22 03:19:00,
2013-05-21 23:20:00,50.5,45.3,30.04,North,0,0.0,0.0,82,0.00,,---,0.67,VWS V14.00,2013-05-22 03:20:00,
2013-05-21 23:22:00,50.5,45.3,30.04,North,0,0.0,0.0,82,0.00,,---,0.67,VWS V14.00,2013-05-22 03:22:00,
2013-05-21 23:23:00,50.5,45.3,30.07,North,0,0.0,0.0,82,0.00,,---,0.67,VWS V14.00,2013-05-22 03:23:00,
2013-05-21 23:24:00,50.4,45.1,30.07,North,0,0.0,0.0,82,0.00,,---,0.67,VWS V14.00,2013-05-22 03:24:00,
2013-05-21 23:25:00,50.4,45.1,30.07,North,0,0.0,0.0,82,0.00,,---,0.67,VWS V14.00,2013-05-22 03:25:00,
2013-05-21 23:27:00,50.4,45.1,30.07,North,0,0.0,0.0,82,0.00,,---,0.67,VWS V14.00,2013-05-22 03:27:00,
2013-05-21 23:28:00,50.4,45.1,30.07,North,0,0.0,0.0,82,0.00,,---,0.67,VWS V14.00,2013-05-22 03:28:00,
2013-05-21 23:29:00,50.2,44.9,30.07,North,0,0.0,0.0,82,0.00,,---,0.67,VWS V14.00,2013-05-22 03:29:00,
2013-05-21 23:31:00,50.2,44.9,30.07,NNW,338,0.0,0.0,82,0.00,,---,0.67,VWS V14.00,2013-05-22 03:31:00,
2013-05-21 23:32:00,50.2,44.9,30.07,NNW,338,0.0,0.0,82,0.00,,---,0.67,VWS V14.00,2013-05-22 03:32:00,
2013-05-21 23:33:00,50.2,44.9,30.07,NNW,338,0.0,0.0,82,0.00,,---,0.67,VWS V14.00,2013-05-22 03:33:00,
2013-05-21 23:34:00,50.2,44.9,30.07,NNW,338,0.0,0.0,82,0.00,,---,0.67,VWS V14.00,2013-05-22 03:34:00,
2013-05-21 23:36:00,50.2,45.2,30.07,NNW,338,0.0,0.0,83,0.00,,---,0.67,VWS V14.00,2013-05-22 03:36:00,
2013-05-21 23:37:00,50.2,45.2,30.07,NNW,338,0.0,0.0,83,0.00,,---,0.67,VWS V14.00,2013-05-22 03:37:00,
2013-05-21 23:38:00,50.2,45.2,30.07,NNW,338,0.0,0.0,83,0.00,,---,0.67,VWS V14.00,2013-05-22 03:38:00,
2013-05-21 23:40:00,50.2,45.2,30.07,NNW,338,0.0,0.0,83,0.00,,---,0.67,VWS V14.00,2013-05-22 03:40:00,
2013-05-21 23:41:00,50.2,45.2,30.07,NNW,338,0.0,0.0,83,0.00,,---,0.67,VWS V14.00,2013-05-22 03:41:00,
2013-05-21 23:42:00,50.2,45.2,30.07,NNW,338,0.0,0.0,83,0.00,,---,0.67,VWS V14.00,2013-05-22 03:42:00,
2013-05-21 23:43:00,50.2,45.2,30.07,NNW,338,0.0,0.0,83,0.00,,---,0.67,VWS V14.00,2013-05-22 03:43:00,
2013-05-21 23:45:00,50.0,45.0,30.07,NNW,338,0.0,0.0,83,0.00,,---,0.67,VWS V14.00,2013-05-22 03:45:00,
2013-05-21 23:46:00,50.0,45.0,30.07,NNW,338,0.0,0.0,83,0.00,,---,0.67,VWS V14.00,2013-05-22 03:46:00,
2013-05-21 23:48:00,49.8,44.9,30.07,NNW,338,0.0,0.0,83,0.00,,---,0.67,VWS V14.00,2013-05-22 03:48:00,
2013-05-21 23:50:00,49.6,44.7,30.07,NNW,336,0.0,0.0,83,0.00,,---,0.67,VWS V14.00,2013-05-22 03:50:00,
2013-05-21 23:51:00,49.5,44.5,30.07,NNW,348,6.0,6.0,83,0.00,,---,0.67,VWS V14.00,2013-05-22 03:51:00,
2013-05-21 23:53:00,49.1,43.8,30.07,NNW,343,4.7,6.0,82,0.00,,---,0.67,VWS V14.00,2013-05-22 03:53:00,
2013-05-21 23:55:00,48.7,43.5,30.07,NNW,340,4.7,4.7,82,0.00,,---,0.67,VWS V14.00,2013-05-22 03:55:00,
2013-05-21 23:56:00,48.7,43.2,30.07,NNW,341,4.0,4.0,81,0.00,,---,0.67,VWS V14.00,2013-05-22 03:56:00,
2013-05-21 23:58:00,48.7,43.2,30.07,North,357,4.7,4.7,81,0.00,,---,0.67,VWS V14.00,2013-05-22 03:58:00,